Time,TemperatureF,DewpointF,PressureIn,WindDirection,WindDirectionDegrees,WindSpeedMPH,WindSpeedGustMPH,Humidity,HourlyPrecipIn,Conditions,Clouds,dailyrainin,SolarRadiationWatts/m^2,SoftwareType,DateUTC
2013-02-12 00:00:00,53.0,24.0,29.94,WSW,245,4.0,19.0,32,0.00,,SKC,0.04,0.00,VWS V14.01,2013-02-12 05:00:00,
2013-02-12 00:01:00,53.0,24.0,29.94,WSW,255,10.0,19.0,32,0.00,,SKC,0.04,0.00,VWS V14.01,2013-02-12 05:01:00,
2013-02-12 00:05:00,53.0,23.2,29.94,WNW,291,11.0,18.0,31,0.00,,SKC,0.00,0.00,VWS V14.01,2013-02-12 05:05:00,
2013-02-12 00:06:00,53.0,23.2,29.94,WNW,302,18.0,18.0,31,0.00,,SKC,0.00,0.00,VWS V14.01,2013-02-12 05:06:00,
2013-02-12 00:10:00,53.0,21.6,29.94,WNW,284,11.0,28.0,29,0.00,,SKC,0.00,0.00,VWS V14.01,2013-02-12 05:10:00,
2013-02-12 00:11:00,53.0,20.8,29.94,WNW,290,24.0,28.0,28,0.00,,SKC,0.00,0.00,VWS V14.01,2013-02-12 05:11:00,
2013-02-12 00:15:00,53.1,21.7,29.95,NNW,336,3.0,28.0,29,0.00,,SKC,0.00,0.00,VWS V14.01,2013-02-12 05:15:00,
2013-02-12 00:16:00,53.0,21.6,29.95,NW,317,7.0,28.0,29,0.00,,SKC,0.00,0.00,VWS V14.01,2013-02-12 05:16:00,
2013-02-12 00:20:00,52.6,21.3,29.94,NW,321,18.0,28.0,29,0.00,,SKC,0.00,0.00,VWS V14.01,2013-02-12 05:20:00,
2013-02-12 00:21:00,52.6,20.4,29.94,WNW,299,13.0,28.0,28,0.00,,SKC,0.00,0.00,VWS V14.01,2013-02-12 05:21:00,
2013-02-12 00:25:00,52.5,20.4,29.94,WNW,290,17.0,28.0,28,0.00,,SKC,0.00,0.00,VWS V14.01,2013-02-12 05:25:00,
2013-02-12 00:26:00,52.5,20.4,29.94,WSW,242,11.0,28.0,28,0.00,,SKC,0.00,0.00,VWS V14.01,2013-02-12 05:26:00,
2013-02-12 00:31:00,52.3,20.2,29.94,NNW,336,15.0,28.0,28,0.00,,SKC,0.00,0.00,VWS V14.01,2013-02-12 05:31:00,
2013-02-12 00:35:00,52.1,20.0,29.94,NW,321,13.0,29.0,28,0.00,,SKC,0.00,0.00,VWS V14.01,2013-02-12 05:35:00,
2013-02-12 00:36:00,52.1,20.0,29.94,NNW,335,9.0,29.0,28,0.00,,SKC,0.00,0.00,VWS V14.01,2013-02-12 05:36:00,
2013-02-12 00:41:00,51.8,19.8,29.95,NW,304,24.0,29.0,28,0.00,,SKC,0.00,0.00,VWS V14.01,2013-02-12 05:41:00,
2013-02-12 00:46:00,51.7,20.5,29.95,North,355,14.0,29.0,29,0.00,,SKC,0.00,0.00,VWS V14.01,2013-02-12 05:46:00,
2013-02-12 00:47:00,51.6,20.4,29.95,WNW,300,19.0,29.0,29,0.00,,SKC,0.00,0.00,VWS V14.01,2013-02-12 05:47:00,
2013-02-12 00:51:00,51.3,20.9,29.95,WNW,302,11.0,29.0,30,0.00,,SKC,0.00,0.00,VWS V14.01,2013-02-12 05:51:00,
2013-02-12 00:52:00,51.2,20.9,29.95,West,267,4.0,29.0,30,0.00,,SKC,0.00,0.00,VWS V14.01,2013-02-12 05:52:00,
2013-02-12 00:56:00,51.0,20.7,29.96,West,281,13.0,29.0,30,0.00,,SKC,0.00,0.00,VWS V14.01,2013-02-12 05:56:00,
2013-02-12 00:57:00,50.9,21.4,29.96,SW,228,10.0,29.0,31,0.00,,SKC,0.00,0.00,VWS V14.01,2013-02-12 05:57:00,
2013-02-12 01:01:00,50.6,21.9,29.95,WNW,286,19.0,19.0,32,0.00,,SKC,0.00,0.00,VWS V14.01,2013-02-12 06:01:00,
2013-02-12 01:02:00,50.6,21.9,29.95,WNW,287,18.0,21.0,32,0.00,,SKC,0.00,0.00,VWS V14.01,2013-02-12 06:02:00,
2013-02-12 01:06:00,50.4,21.7,29.95,SW,222,5.0,21.0,32,0.00,,SKC,0.00,0.00,VWS V14.01,2013-02-12 06:06:00,
2013-02-12 01:07:00,50.4,21.7,29.95,WNW,302,10.0,21.0,32,0.00,,SKC,0.00,0.00,VWS V14.01,2013-02-12 06:07:00,
2013-02-12 01:11:00,50.1,21.4,29.96,NW,312,6.0,21.0,32,0.00,,SKC,0.00,0.00,VWS V14.01,2013-02-12 06:11:00,
2013-02-12 01:12:00,50.1,21.4,29.96,NNW,343,6.0,21.0,32,0.00,,SKC,0.00,0.00,VWS V14.01,2013-02-12 06:12:00,
2013-02-12 01:16:00,49.9,22.0,29.96,WNW,282,11.0,21.0,33,0.00,,SKC,0.00,0.00,VWS V14.01,2013-02-12 06:16:00,
2013-02-12 01:17:00,49.9,22.0,29.96,NW,309,12.0,21.0,33,0.00,,SKC,0.00,0.00,VWS V14.01,2013-02-12 06:17:00,
2013-02-12 01:22:00,49.7,21.8,29.96,NW,306,8.0,21.0,33,0.00,,SKC,0.00,0.00,VWS V14.01,2013-02-12 06:22:00,
2013-02-12 01:27:00,49.5,22.3,29.97,West,269,19.0,22.0,34,0.00,,SKC,0.00,0.00,VWS V14.01,2013-02-12 06:27:00,
2013-02-12 01:32:00,49.4,22.2,29.96,WSW,256,9.0,12.0,34,0.00,,SKC,0.00,0.00,VWS V14.01,2013-02-12 06:32:00,
2013-02-12 01:37:00,49.1,22.6,29.96,WNW,294,9.0,20.0,35,0.00,,SKC,0.00,0.00,VWS V14.01,2013-02-12 06:37:00,
2013-02-12 01:42:00,48.8,22.4,29.96,WSW,247,10.0,22.0,35,0.00,,SKC,0.00,0.00,VWS V14.01,2013-02-12 06:42:00,
2013-02-12 01:43:00,48.8,22.4,29.96,NW,315,10.0,22.0,35,0.00,,SKC,0.00,0.00,VWS V14.01,2013-02-12 06:43:00,
2013-02-12 01:47:00,48.7,23.0,29.96,WNW,282,6.0,22.0,36,0.00,,SKC,0.00,0.00,VWS V14.01,2013-02-12 06:47:00,
2013-02-12 01:48:00,48.7,23.0,29.96,WNW,290,5.0,22.0,36,0.00,,SKC,0.00,0.00,VWS V14.01,2013-02-12 06:48:00,
2013-02-12 01:52:00,48.5,22.8,29.96,NW,311,11.0,22.0,36,0.00,,SKC,0.00,0.00,VWS V14.01,2013-02-12 06:52:00,
2013-02-12 01:53:00,48.5,22.8,29.97,WNW,294,12.0,23.0,36,0.00,,SKC,0.00,0.00,VWS V14.01,2013-02-12 06:53:00,
2013-02-12 01:57:00,48.3,23.3,29.96,NW,322,14.0,23.0,37,0.00,,SKC,0.00,0.00,VWS V14.01,2013-02-12 06:57:00,
2013-02-12 01:58:00,48.3,23.3,29.97,WNW,302,10.0,23.0,37,0.00,,SKC,0.00,0.00,VWS V14.01,2013-02-12 06:58:00,
2013-02-12 01:59:00,48.3,23.3,29.97,NW,310,9.0,23.0,37,0.00,,SKC,0.00,0.00,VWS V14.01,2013-02-12 06:59:00,
2013-02-12 02:02:00,48.2,23.2,29.97,WNW,290,11.0,13.0,37,0.00,,SKC,0.00,0.00,VWS V14.01,2013-02-12 07:02:00,
2013-02-12 02:03:00,48.1,23.1,29.97,WNW,296,6.0,13.0,37,0.00,,SKC,0.00,0.00,VWS V14.01,2013-02-12 07:03:00,
2013-02-12 02:04:00,48.0,23.6,29.97,WNW,303,10.0,13.0,38,0.00,,SKC,0.00,0.00,VWS V14.01,2013-02-12 07:04:00,
2013-02-12 02:07:00,47.9,23.5,29.97,WNW,286,15.0,18.0,38,0.00,,SKC,0.00,0.00,VWS V14.01,2013-02-12 07:07:00,
2013-02-12 02:08:00,47.8,23.4,29.97,NW,317,8.0,18.0,38,0.00,,SKC,0.00,0.00,VWS V14.01,2013-02-12 07:08:00,
2013-02-12 02:09:00,47.7,23.4,29.97,WNW,284,6.0,19.0,38,0.00,,SKC,0.00,0.00,VWS V14.01,2013-02-12 07:09:00,
2013-02-12 02:12:00,47.6,23.3,29.97,WSW,258,15.0,21.0,38,0.00,,SKC,0.00,0.00,VWS V14.01,2013-02-12 07:12:00,
2013-02-12 02:13:00,47.6,23.3,29.96,NW,315,18.0,21.0,38,0.00,,SKC,0.00,0.00,VWS V14.01,2013-02-12 07:13:00,
2013-02-12 02:14:00,47.6,23.9,29.96,NNW,348,18.0,21.0,39,0.00,,SKC,0.00,0.00,VWS V14.01,2013-02-12 07:14:00,
2013-02-12 02:17:00,47.5,23.8,29.96,West,281,16.0,21.0,39,0.00,,SKC,0.00,0.00,VWS V14.01,2013-02-12 07:17:00,
2013-02-12 02:18:00,47.5,23.8,29.96,WNW,286,14.0,21.0,39,0.00,,SKC,0.00,0.00,VWS V14.01,2013-02-12 07:18:00,
2013-02-12 02:19:00,47.5,24.4,29.96,West,280,11.0,21.0,40,0.00,,SKC,0.00,0.00,VWS V14.01,2013-02-12 07:19:00,
2013-02-12 02:23:00,47.2,24.1,29.96,WSW,237,4.0,21.0,40,0.00,,SKC,0.00,0.00,VWS V14.01,2013-02-12 07:23:00,
2013-02-12 02:24:00,47.2,24.1,29.96,NW,304,3.0,21.0,40,0.00,,SKC,0.00,0.00,VWS V14.01,2013-02-12 07:24:00,
2013-02-12 02:25:00,47.1,24.0,29.96,WSW,254,7.0,21.0,40,0.00,,SKC,0.00,0.00,VWS V14.01,2013-02-12 07:25:00,
2013-02-12 02:28:00,47.1,24.0,29.97,NNW,329,17.0,21.0,40,0.00,,SKC,0.00,0.00,VWS V14.01,2013-02-12 07:28:00,
2013-02-12 02:29:00,47.1,24.0,29.97,West,277,18.0,21.0,40,0.00,,SKC,0.00,0.00,VWS V14.01,2013-02-12 07:29:00,
2013-02-12 02:30:00,47.1,24.0,29.97,WNW,294,9.0,21.0,40,0.00,,SKC,0.00,0.00,VWS V14.01,2013-02-12 07:30:00,
2013-02-12 02:33:00,47.1,24.0,29.97,NNW,345,17.0,22.0,40,0.00,,SKC,0.00,0.00,VWS V14.01,2013-02-12 07:33:00,
2013-02-12 02:34:00,47.0,24.0,29.97,North,350,6.0,22.0,40,0.00,,SKC,0.00,0.00,VWS V14.01,2013-02-12 07:34:00,
2013-02-12 02:35:00,47.0,25.1,29.97,NW,309,11.0,22.0,42,0.00,,SKC,0.00,0.00,VWS V14.01,2013-02-12 07:35:00,
2013-02-12 02:38:00,46.9,24.5,29.97,NW,319,21.0,27.0,41,0.00,,SKC,0.00,0.00,VWS V14.01,2013-02-12 07:38:00,
2013-02-12 02:39:00,46.9,24.5,29.96,NW,321,16.0,32.0,41,0.00,,SKC,0.00,0.00,VWS V14.01,2013-02-12 07:39:00,
2013-02-12 02:40:00,46.9,25.0,29.97,WNW,285,10.0,32.0,42,0.00,,SKC,0.00,0.00,VWS V14.01,2013-02-12 07:40:00,
2013-02-12 02:43:00,46.8,24.9,29.97,WNW,283,18.0,32.0,42,0.00,,SKC,0.00,0.00,VWS V14.01,2013-02-12 07:43:00,
2013-02-12 02:44:00,46.7,24.8,29.97,NNW,336,15.0,32.0,42,0.00,,SKC,0.00,0.00,VWS V14.01,2013-02-12 07:44:00,
2013-02-12 02:45:00,46.7,24.8,29.97,NW,313,13.0,32.0,42,0.00,,SKC,0.00,0.00,VWS V14.01,2013-02-12 07:45:00,
2013-02-12 02:48:00,46.6,25.3,29.97,NW,320,14.0,32.0,43,0.00,,SKC,0.00,0.00,VWS V14.01,2013-02-12 07:48:00,
2013-02-12 02:49:00,46.6,24.8,29.97,NW,309,11.0,32.0,42,0.00,,SKC,0.00,0.00,VWS V14.01,2013-02-12 07:49:00,
2013-02-12 02:50:00,46.6,24.8,29.98,NW,306,8.0,32.0,42,0.00,,SKC,0.00,0.00,VWS V14.01,2013-02-12 07:50:00,
2013-02-12 02:53:00,46.5,24.7,29.98,NNW,330,16.0,32.0,42,0.00,,SKC,0.00,0.00,VWS V14.01,2013-02-12 07:53:00,
2013-02-12 02:54:00,46.5,24.7,29.98,North,350,19.0,32.0,42,0.00,,SKC,0.00,0.00,VWS V14.01,2013-02-12 07:54:00,
2013-02-12 02:55:00,46.5,24.7,29.97,NW,310,12.0,32.0,42,0.00,,SKC,0.00,0.00,VWS V14.01,2013-02-12 07:55:00,
2013-02-12 02:58:00,46.5,24.7,29.97,NW,304,8.0,32.0,42,0.00,,SKC,0.00,0.00,VWS V14.01,2013-02-12 07:58:00,
2013-02-12 02:59:00,46.5,25.2,29.97,North,10,6.0,32.0,43,0.00,,SKC,0.00,0.00,VWS V14.01,2013-02-12 07:59:00,
2013-02-12 03:00:00,46.4,25.1,29.97,WNW,283,7.0,32.0,43,0.00,,SKC,0.00,0.00,VWS V14.01,2013-02-12 08:00:00,
2013-02-12 03:03:00,46.2,25.0,29.97,West,260,3.0,26.0,43,0.00,,SKC,0.00,0.00,VWS V14.01,2013-02-12 08:03:00,
2013-02-12 03:04:00,46.1,24.9,29.97,WNW,290,15.0,26.0,43,0.00,,SKC,0.00,0.00,VWS V14.01,2013-02-12 08:04:00,
2013-02-12 03:05:00,46.1,24.9,29.97,NW,315,11.0,26.0,43,0.00,,SKC,0.00,0.00,VWS V14.01,2013-02-12 08:05:00,
2013-02-12 03:08:00,46.1,24.9,29.97,WNW,288,20.0,26.0,43,0.00,,SKC,0.00,0.00,VWS V14.01,2013-02-12 08:08:00,
2013-02-12 03:09:00,46.1,24.9,29.97,NE,40,7.0,26.0,43,0.00,,SKC,0.00,0.00,VWS V14.01,2013-02-12 08:09:00,
2013-02-12 03:11:00,46.1,24.9,29.97,WSW,237,13.0,26.0,43,0.00,,SKC,0.00,0.00,VWS V14.01,2013-02-12 08:11:00,
2013-02-12 03:13:00,46.1,24.9,29.97,North,9,13.0,26.0,43,0.00,,SKC,0.00,0.00,VWS V14.01,2013-02-12 08:13:00,
2013-02-12 03:14:00,46.1,24.9,29.96,NW,321,12.0,26.0,43,0.00,,SKC,0.00,0.00,VWS V14.01,2013-02-12 08:14:00,
2013-02-12 03:16:00,46.1,24.9,29.97,NW,315,17.0,28.0,43,0.00,,SKC,0.00,0.00,VWS V14.01,2013-02-12 08:16:00,
2013-02-12 03:19:00,46.1,24.9,29.97,NNW,340,16.0,28.0,43,0.00,,SKC,0.00,0.00,VWS V14.01,2013-02-12 08:19:00,
2013-02-12 03:21:00,46.1,25.4,29.97,NNW,340,9.0,28.0,44,0.00,,SKC,0.00,0.00,VWS V14.01,2013-02-12 08:21:00,
2013-02-12 03:24:00,46.0,25.3,29.97,SW,233,14.0,28.0,44,0.00,,SKC,0.00,0.00,VWS V14.01,2013-02-12 08:24:00,
2013-02-12 03:25:00,45.9,25.2,29.97,NNW,335,9.0,28.0,44,0.00,,SKC,0.00,0.00,VWS V14.01,2013-02-12 08:25:00,
2013-02-12 03:26:00,45.9,25.2,29.97,NNW,336,10.0,28.0,44,0.00,,SKC,0.00,0.00,VWS V14.01,2013-02-12 08:26:00,
2013-02-12 03:29:00,45.8,25.1,29.97,NW,304,6.0,28.0,44,0.00,,SKC,0.00,0.00,VWS V14.01,2013-02-12 08:29:00,
2013-02-12 03:30:00,45.8,25.1,29.97,WNW,298,16.0,28.0,44,0.00,,SKC,0.00,0.00,VWS V14.01,2013-02-12 08:30:00,
2013-02-12 03:31:00,45.8,25.7,29.97,NNW,347,23.0,23.0,45,0.00,,SKC,0.00,0.00,VWS V14.01,2013-02-12 08:31:00,
2013-02-12 03:34:00,45.8,25.1,29.97,WSW,251,13.0,23.0,44,0.00,,SKC,0.00,0.00,VWS V14.01,2013-02-12 08:34:00,
2013-02-12 03:35:00,45.7,25.6,29.97,North,355,16.0,23.0,45,0.00,,SKC,0.00,0.00,VWS V14.01,2013-02-12 08:35:00,
2013-02-12 03:36:00,45.7,25.6,29.97,North,5,12.0,23.0,45,0.00,,SKC,0.00,0.00,VWS V14.01,2013-02-12 08:36:00,
2013-02-12 03:39:00,45.7,25.6,29.97,WNW,289,9.0,23.0,45,0.00,,SKC,0.00,0.00,VWS V14.01,2013-02-12 08:39:00,
2013-02-12 03:40:00,45.6,25.5,29.98,NW,321,9.0,23.0,45,0.00,,SKC,0.00,0.00,VWS V14.01,2013-02-12 08:40:00,
2013-02-12 03:41:00,45.6,25.5,29.98,West,263,17.0,23.0,45,0.00,,SKC,0.00,0.00,VWS V14.01,2013-02-12 08:41:00,
2013-02-12 03:44:00,45.6,25.5,29.98,WNW,299,12.0,23.0,45,0.00,,SKC,0.00,0.00,VWS V14.01,2013-02-12 08:44:00,
2013-02-12 03:45:00,45.5,25.4,29.98,NW,312,10.0,23.0,45,0.00,,SKC,0.00,0.00,VWS V14.01,2013-02-12 08:45:00,
2013-02-12 03:46:00,45.5,25.4,29.97,WSW,250,14.0,23.0,45,0.00,,SKC,0.00,0.00,VWS V14.01,2013-02-12 08:46:00,
2013-02-12 03:47:00,45.5,25.4,29.97,NW,305,13.0,23.0,45,0.00,,SKC,0.00,0.00,VWS V14.01,2013-02-12 08:47:00,
2013-02-12 03:49:00,45.5,25.4,29.98,West,260,3.0,23.0,45,0.00,,SKC,0.00,0.00,VWS V14.01,2013-02-12 08:49:00,
2013-02-12 03:50:00,45.4,25.3,29.98,WNW,293,12.0,23.0,45,0.00,,SKC,0.00,0.00,VWS V14.01,2013-02-12 08:50:00,
2013-02-12 03:51:00,45.4,25.3,29.98,WNW,288,13.0,23.0,45,0.00,,SKC,0.00,0.00,VWS V14.01,2013-02-12 08:51:00,
2013-02-12 03:52:00,45.4,25.3,29.98,West,264,6.0,23.0,45,0.00,,SKC,0.00,0.00,VWS V14.01,2013-02-12 08:52:00,
2013-02-12 03:54:00,45.3,25.8,29.98,West,281,8.0,23.0,46,0.00,,SKC,0.00,0.00,VWS V14.01,2013-02-12 08:54:00,
2013-02-12 03:55:00,45.2,25.7,29.98,NW,308,12.0,23.0,46,0.00,,SKC,0.00,0.00,VWS V14.01,2013-02-12 08:55:00,
2013-02-12 03:56:00,45.2,25.1,29.98,West,259,12.0,23.0,45,0.00,,SKC,0.00,0.00,VWS V14.01,2013-02-12 08:56:00,
2013-02-12 03:57:00,45.2,25.7,29.98,WNW,283,6.0,23.0,46,0.00,,SKC,0.00,0.00,VWS V14.01,2013-02-12 08:57:00,
2013-02-12 04:00:00,45.2,25.7,29.98,NW,306,6.0,23.0,46,0.00,,SKC,0.00,0.00,VWS V14.01,2013-02-12 09:00:00,
2013-02-12 04:01:00,45.2,25.7,29.98,NW,312,13.0,32.0,46,0.00,,SKC,0.00,0.00,VWS V14.01,2013-02-12 09:01:00,
2013-02-12 04:02:00,45.2,25.1,29.97,WNW,290,9.0,20.0,45,0.00,,SKC,0.00,0.00,VWS V14.01,2013-02-12 09:02:00,
2013-02-12 04:05:00,45.3,25.2,29.98,NNW,336,3.0,20.0,45,0.00,,SKC,0.00,0.00,VWS V14.01,2013-02-12 09:05:00,
2013-02-12 04:06:00,45.2,25.1,29.97,NNW,344,12.0,20.0,45,0.00,,SKC,0.00,0.00,VWS V14.01,2013-02-12 09:06:00,
2013-02-12 04:07:00,45.2,25.1,29.97,NNE,15,5.0,20.0,45,0.00,,SKC,0.00,0.00,VWS V14.01,2013-02-12 09:07:00,
2013-02-12 04:10:00,45.2,25.1,29.98,WNW,289,16.0,26.0,45,0.00,,SKC,0.00,0.00,VWS V14.01,2013-02-12 09:10:00,
2013-02-12 04:11:00,45.2,25.1,29.97,NNW,338,13.0,26.0,45,0.00,,SKC,0.00,0.00,VWS V14.01,2013-02-12 09:11:00,
2013-02-12 04:12:00,45.2,25.7,29.98,West,279,12.0,26.0,46,0.00,,SKC,0.00,0.00,VWS V14.01,2013-02-12 09:12:00,
2013-02-12 04:15:00,45.3,25.2,29.98,NW,309,8.0,26.0,45,0.00,,SKC,0.00,0.00,VWS V14.01,2013-02-12 09:15:00,
2013-02-12 04:16:00,45.2,25.1,29.98,NNW,331,14.0,26.0,45,0.00,,SKC,0.00,0.00,VWS V14.01,2013-02-12 09:16:00,
2013-02-12 04:17:00,45.2,25.1,29.98,WSW,245,13.0,26.0,45,0.00,,SKC,0.00,0.00,VWS V14.01,2013-02-12 09:17:00,
2013-02-12 04:20:00,45.1,25.6,29.98,NW,310,6.0,26.0,46,0.00,,SKC,0.00,0.00,VWS V14.01,2013-02-12 09:20:00,
2013-02-12 04:21:00,45.1,25.6,29.97,NNW,340,14.0,26.0,46,0.00,,SKC,0.00,0.00,VWS V14.01,2013-02-12 09:21:00,
2013-02-12 04:22:00,45.0,25.5,29.97,NW,316,11.0,26.0,46,0.00,,SKC,0.00,0.00,VWS V14.01,2013-02-12 09:22:00,
2013-02-12 04:25:00,45.0,25.5,29.97,SW,232,13.0,27.0,46,0.00,,SKC,0.00,0.00,VWS V14.01,2013-02-12 09:25:00,
2013-02-12 04:26:00,45.0,25.5,29.97,NW,317,11.0,27.0,46,0.00,,SKC,0.00,0.00,VWS V14.01,2013-02-12 09:26:00,
2013-02-12 04:27:00,45.0,25.5,29.97,West,263,6.0,27.0,46,0.00,,SKC,0.00,0.00,VWS V14.01,2013-02-12 09:27:00,
2013-02-12 04:30:00,44.9,25.4,29.97,North,355,23.0,27.0,46,0.00,,SKC,0.00,0.00,VWS V14.01,2013-02-12 09:30:00,
2013-02-12 04:31:00,44.9,25.4,29.97,NNW,328,18.0,18.0,46,0.00,,SKC,0.00,0.00,VWS V14.01,2013-02-12 09:31:00,
2013-02-12 04:32:00,44.9,25.4,29.97,NNW,340,24.0,24.0,46,0.00,,SKC,0.00,0.00,VWS V14.01,2013-02-12 09:32:00,
2013-02-12 04:33:00,44.9,25.4,29.97,West,267,22.0,24.0,46,0.00,,SKC,0.00,0.00,VWS V14.01,2013-02-12 09:33:00,
2013-02-12 04:35:00,44.9,25.4,29.97,West,271,22.0,24.0,46,0.00,,SKC,0.00,0.00,VWS V14.01,2013-02-12 09:35:00,
2013-02-12 04:36:00,44.9,25.4,29.97,NW,317,10.0,24.0,46,0.00,,SKC,0.00,0.00,VWS V14.01,2013-02-12 09:36:00,
2013-02-12 04:38:00,44.9,25.4,29.97,NNW,342,19.0,24.0,46,0.00,,SKC,0.00,0.00,VWS V14.01,2013-02-12 09:38:00,
2013-02-12 04:40:00,44.8,25.3,29.97,WNW,285,11.0,24.0,46,0.00,,SKC,0.00,0.00,VWS V14.01,2013-02-12 09:40:00,
2013-02-12 04:42:00,44.8,25.3,29.97,NNW,348,11.0,24.0,46,0.00,,SKC,0.00,0.00,VWS V14.01,2013-02-12 09:42:00,
2013-02-12 04:43:00,44.8,25.3,29.97,NNW,346,25.0,25.0,46,0.00,,SKC,0.00,0.00,VWS V14.01,2013-02-12 09:43:00,
2013-02-12 04:45:00,44.8,25.3,29.98,WNW,293,15.0,30.0,46,0.00,,SKC,0.00,0.00,VWS V14.01,2013-02-12 09:45:00,
2013-02-12 04:47:00,44.7,25.2,29.97,North,350,14.0,30.0,46,0.00,,SKC,0.00,0.00,VWS V14.01,2013-02-12 09:47:00,
2013-02-12 04:48:00,44.7,25.2,29.97,West,262,13.0,30.0,46,0.00,,SKC,0.00,0.00,VWS V14.01,2013-02-12 09:48:00,
2013-02-12 04:51:00,44.6,25.1,29.98,WNW,295,12.0,30.0,46,0.00,,SKC,0.00,0.00,VWS V14.01,2013-02-12 09:51:00,
2013-02-12 04:52:00,44.6,25.1,29.98,WNW,289,10.0,30.0,46,0.00,,SKC,0.00,0.00,VWS V14.01,2013-02-12 09:52:00,
2013-02-12 04:53:00,44.6,25.1,29.97,NNW,332,14.0,30.0,46,0.00,,SKC,0.00,0.00,VWS V14.01,2013-02-12 09:53:00,
2013-02-12 04:56:00,44.6,25.1,29.98,NNW,336,7.0,30.0,46,0.00,,SKC,0.00,0.00,VWS V14.01,2013-02-12 09:56:00,
2013-02-12 04:57:00,44.6,25.6,29.98,West,267,7.0,30.0,47,0.00,,SKC,0.00,0.00,VWS V14.01,2013-02-12 09:57:00,
2013-02-12 04:58:00,44.5,25.5,29.98,West,267,14.0,30.0,47,0.00,,SKC,0.00,0.00,VWS V14.01,2013-02-12 09:58:00,
2013-02-12 05:01:00,44.5,25.5,29.98,WNW,284,18.0,30.0,47,0.00,,SKC,0.00,0.00,VWS V14.01,2013-02-12 10:01:00,
2013-02-12 05:02:00,44.5,25.5,29.99,WNW,302,25.0,26.0,47,0.00,,SKC,0.00,0.00,VWS V14.01,2013-02-12 10:02:00,
2013-02-12 05:03:00,44.5,25.5,29.98,West,278,12.0,26.0,47,0.00,,SKC,0.00,0.00,VWS V14.01,2013-02-12 10:03:00,
2013-02-12 05:04:00,44.5,25.5,29.98,WNW,302,13.0,26.0,47,0.00,,SKC,0.00,0.00,VWS V14.01,2013-02-12 10:04:00,
2013-02-12 05:06:00,44.5,25.0,29.99,NNW,333,6.0,26.0,46,0.00,,SKC,0.00,0.00,VWS V14.01,2013-02-12 10:06:00,
2013-02-12 05:07:00,44.5,25.5,29.99,North,5,12.0,26.0,47,0.00,,SKC,0.00,0.00,VWS V14.01,2013-02-12 10:07:00,
2013-02-12 05:09:00,44.5,25.5,29.99,NNW,338,14.0,26.0,47,0.00,,SKC,0.00,0.00,VWS V14.01,2013-02-12 10:09:00,
2013-02-12 05:11:00,44.5,25.5,29.99,NW,324,8.0,26.0,47,0.00,,SKC,0.00,0.00,VWS V14.01,2013-02-12 10:11:00,
2013-02-12 05:13:00,44.4,25.5,29.99,NW,313,10.0,26.0,47,0.00,,SKC,0.00,0.00,VWS V14.01,2013-02-12 10:13:00,
2013-02-12 05:14:00,44.4,25.5,29.99,NNW,335,10.0,26.0,47,0.00,,SKC,0.00,0.00,VWS V14.01,2013-02-12 10:14:00,
2013-02-12 05:16:00,44.3,25.4,29.99,NW,315,9.0,26.0,47,0.00,,SKC,0.00,0.00,VWS V14.01,2013-02-12 10:16:00,
2013-02-12 05:18:00,44.3,25.4,29.99,WSW,241,4.0,26.0,47,0.00,,SKC,0.00,0.00,VWS V14.01,2013-02-12 10:18:00,
2013-02-12 05:19:00,44.2,25.3,29.99,WNW,303,16.0,26.0,47,0.00,,SKC,0.00,0.00,VWS V14.01,2013-02-12 10:19:00,
2013-02-12 05:21:00,44.2,25.3,29.99,NW,308,8.0,26.0,47,0.00,,SKC,0.00,0.00,VWS V14.01,2013-02-12 10:21:00,
2013-02-12 05:24:00,44.2,25.3,29.99,NW,319,4.0,26.0,47,0.00,,SKC,0.00,0.00,VWS V14.01,2013-02-12 10:24:00,
2013-02-12 05:27:00,44.2,25.3,30.00,WNW,288,14.0,26.0,47,0.00,,SKC,0.00,0.00,VWS V14.01,2013-02-12 10:27:00,
2013-02-12 05:29:00,44.1,25.2,30.00,NW,305,8.0,26.0,47,0.00,,SKC,0.00,0.00,VWS V14.01,2013-02-12 10:29:00,
2013-02-12 05:32:00,44.1,25.7,30.00,West,266,11.0,11.0,48,0.00,,SKC,0.00,0.00,VWS V14.01,2013-02-12 10:32:00,
2013-02-12 05:34:00,44.0,25.6,30.01,NW,304,8.0,15.0,48,0.00,,SKC,0.00,0.00,VWS V14.01,2013-02-12 10:34:00,
2013-02-12 05:35:00,44.0,25.6,30.00,WNW,292,9.0,15.0,48,0.00,,SKC,0.00,0.00,VWS V14.01,2013-02-12 10:35:00,
2013-02-12 05:37:00,43.9,25.5,30.01,WNW,295,18.0,18.0,48,0.00,,SKC,0.00,0.00,VWS V14.01,2013-02-12 10:37:00,
2013-02-12 05:39:00,43.9,25.5,30.00,NW,321,11.0,21.0,48,0.00,,SKC,0.00,0.00,VWS V14.01,2013-02-12 10:39:00,
2013-02-12 05:40:00,43.9,25.5,30.00,WNW,301,7.0,21.0,48,0.00,,SKC,0.00,0.00,VWS V14.01,2013-02-12 10:40:00,
2013-02-12 05:42:00,43.9,25.5,30.00,West,267,3.0,21.0,48,0.00,,SKC,0.00,0.00,VWS V14.01,2013-02-12 10:42:00,
2013-02-12 05:45:00,43.8,25.4,30.00,North,9,14.0,21.0,48,0.00,,SKC,0.00,0.00,VWS V14.01,2013-02-12 10:45:00,
2013-02-12 05:47:00,43.8,25.4,30.00,WNW,302,11.0,21.0,48,0.00,,SKC,0.00,0.00,VWS V14.01,2013-02-12 10:47:00,
2013-02-12 05:50:00,43.6,25.2,30.00,WNW,285,4.0,21.0,48,0.00,,SKC,0.00,0.00,VWS V14.01,2013-02-12 10:50:00,
2013-02-12 05:51:00,43.6,25.2,30.00,West,268,9.0,21.0,48,0.00,,SKC,0.00,0.00,VWS V14.01,2013-02-12 10:51:00,
2013-02-12 05:52:00,43.6,25.2,30.00,West,263,8.0,21.0,48,0.00,,SKC,0.00,0.00,VWS V14.01,2013-02-12 10:52:00,
2013-02-12 05:55:00,43.5,25.1,30.01,NNW,347,11.0,24.0,48,0.00,,SKC,0.00,0.00,VWS V14.01,2013-02-12 10:55:00,
2013-02-12 05:56:00,43.5,25.1,30.01,North,355,6.0,24.0,48,0.00,,SKC,0.00,0.00,VWS V14.01,2013-02-12 10:56:00,
2013-02-12 05:57:00,43.4,25.0,30.00,West,270,9.0,24.0,48,0.00,,SKC,0.00,0.00,VWS V14.01,2013-02-12 10:57:00,
2013-02-12 06:00:00,43.5,25.1,30.01,WNW,297,5.0,24.0,48,0.00,,SKC,0.00,0.00,VWS V14.01,2013-02-12 11:00:00,
2013-02-12 06:01:00,43.4,25.0,30.01,NW,306,8.0,24.0,48,0.00,,SKC,0.00,0.00,VWS V14.01,2013-02-12 11:01:00,
2013-02-12 06:02:00,43.4,25.0,30.00,WSW,252,11.0,20.0,48,0.00,,SKC,0.00,0.00,VWS V14.01,2013-02-12 11:02:00,
2013-02-12 06:06:00,43.4,25.5,30.01,West,273,5.0,20.0,49,0.00,,SKC,0.00,0.00,VWS V14.01,2013-02-12 11:06:00,
2013-02-12 06:07:00,43.4,25.5,30.01,NW,323,12.0,20.0,49,0.00,,SKC,0.00,0.00,VWS V14.01,2013-02-12 11:07:00,
2013-02-12 06:11:00,43.3,25.4,30.01,NW,310,6.0,21.0,49,0.00,,SKC,0.00,0.00,VWS V14.01,2013-02-12 11:11:00,
2013-02-12 06:12:00,43.3,25.4,30.01,NNW,338,7.0,21.0,49,0.00,,SKC,0.00,0.00,VWS V14.01,2013-02-12 11:12:00,
2013-02-12 06:16:00,43.2,25.4,30.01,NNW,346,7.0,21.0,49,0.00,,SKC,0.00,0.00,VWS V14.01,2013-02-12 11:16:00,
2013-02-12 06:17:00,43.1,25.3,30.01,WNW,284,7.0,21.0,49,0.00,,SKC,0.00,0.00,VWS V14.01,2013-02-12 11:17:00,
2013-02-12 06:21:00,43.1,25.3,30.01,NNW,330,9.0,23.0,49,0.00,,SKC,0.00,0.00,VWS V14.01,2013-02-12 11:21:00,
2013-02-12 06:22:00,43.1,25.3,30.01,North,349,14.0,23.0,49,0.00,,SKC,0.00,0.00,VWS V14.01,2013-02-12 11:22:00,
2013-02-12 06:26:00,43.1,24.8,30.01,NNW,333,9.0,23.0,48,0.00,,SKC,0.00,0.00,VWS V14.01,2013-02-12 11:26:00,
2013-02-12 06:27:00,43.2,24.9,30.01,West,266,9.0,23.0,48,0.00,,SKC,0.00,0.00,VWS V14.01,2013-02-12 11:27:00,
2013-02-12 06:31:00,43.2,24.9,30.01,NNW,335,14.0,16.0,48,0.00,,SKC,0.00,0.00,VWS V14.01,2013-02-12 11:31:00,
2013-02-12 06:32:00,43.2,24.9,30.01,NNW,329,18.0,18.0,48,0.00,,SKC,0.00,0.00,VWS V14.01,2013-02-12 11:32:00,
2013-02-12 06:36:00,43.1,24.8,30.01,NNW,348,11.0,20.0,48,0.00,,SKC,0.00,0.00,VWS V14.01,2013-02-12 11:36:00,
2013-02-12 06:37:00,43.1,24.8,30.00,NNW,340,13.0,20.0,48,0.00,,SKC,0.00,0.00,VWS V14.01,2013-02-12 11:37:00,
2013-02-12 06:42:00,43.0,24.7,30.01,NNW,345,7.0,20.0,48,0.00,,SKC,0.00,0.00,VWS V14.01,2013-02-12 11:42:00,
2013-02-12 06:47:00,42.9,24.6,30.01,West,270,5.0,20.0,48,0.00,,SKC,0.00,0.00,VWS V14.01,2013-02-12 11:47:00,
2013-02-12 06:48:00,42.9,24.6,30.01,West,279,7.0,20.0,48,0.00,,SKC,0.00,0.00,VWS V14.01,2013-02-12 11:48:00,
2013-02-12 06:52:00,42.8,25.0,30.02,WNW,301,7.0,20.0,49,0.00,,SKC,0.00,0.00,VWS V14.01,2013-02-12 11:52:00,
2013-02-12 06:53:00,42.8,25.0,30.02,North,355,7.0,20.0,49,0.00,,SKC,0.00,0.00,VWS V14.01,2013-02-12 11:53:00,
2013-02-12 06:58:00,42.8,25.0,30.02,North,349,11.0,20.0,49,0.00,,SKC,0.00,0.00,VWS V14.01,2013-02-12 11:58:00,
2013-02-12 07:03:00,42.7,24.9,30.01,NNW,336,13.0,13.0,49,0.00,,SKC,0.00,0.00,VWS V14.01,2013-02-12 12:03:00,
2013-02-12 07:08:00,42.7,24.9,30.01,West,272,9.0,18.0,49,0.00,,SKC,0.00,0.00,VWS V14.01,2013-02-12 12:08:00,
2013-02-12 07:13:00,42.7,24.9,30.01,NW,324,13.0,23.0,49,0.00,,SKC,0.00,0.00,VWS V14.01,2013-02-12 12:13:00,
2013-02-12 07:14:00,42.7,24.9,30.01,NNW,338,4.0,23.0,49,0.00,,SKC,0.00,0.00,VWS V14.01,2013-02-12 12:14:00,
2013-02-12 07:18:00,42.8,25.0,30.01,NNW,339,8.0,23.0,49,0.00,,SKC,0.00,5.00,VWS V14.01,2013-02-12 12:18:00,
2013-02-12 07:19:00,42.7,24.9,30.01,NNW,346,8.0,23.0,49,0.00,,SKC,0.00,5.00,VWS V14.01,2013-02-12 12:19:00,
2013-02-12 07:23:00,42.7,24.9,30.01,North,9,6.0,23.0,49,0.00,,SKC,0.00,9.00,VWS V14.01,2013-02-12 12:23:00,
2013-02-12 07:24:00,42.6,24.8,30.01,NW,325,10.0,23.0,49,0.00,,SKC,0.00,9.00,VWS V14.01,2013-02-12 12:24:00,
2013-02-12 07:28:00,42.5,25.2,30.02,West,268,2.0,23.0,50,0.00,,SKC,0.00,9.00,VWS V14.01,2013-02-12 12:28:00,
2013-02-12 07:29:00,42.5,25.2,30.02,WSW,243,6.0,23.0,50,0.00,,SKC,0.00,9.00,VWS V14.01,2013-02-12 12:29:00,
2013-02-12 07:33:00,42.3,25.0,30.02,WSW,257,11.0,12.0,50,0.00,,SKC,0.00,11.00,VWS V14.01,2013-02-12 12:33:00,
2013-02-12 07:34:00,42.3,25.0,30.02,NNW,347,9.0,15.0,50,0.00,,SKC,0.00,12.00,VWS V14.01,2013-02-12 12:34:00,
2013-02-12 07:35:00,42.4,25.1,30.02,West,265,6.0,15.0,50,0.00,,SKC,0.00,12.00,VWS V14.01,2013-02-12 12:35:00,
2013-02-12 07:38:00,42.4,25.1,30.02,WSW,257,9.0,15.0,50,0.00,,SKC,0.00,16.00,VWS V14.01,2013-02-12 12:38:00,
2013-02-12 07:39:00,42.4,25.1,30.02,NW,315,14.0,20.0,50,0.00,,SKC,0.00,16.00,VWS V14.01,2013-02-12 12:39:00,
2013-02-12 07:40:00,42.4,25.1,30.02,West,261,9.0,20.0,50,0.00,,SKC,0.00,18.00,VWS V14.01,2013-02-12 12:40:00,
2013-02-12 07:44:00,42.6,25.3,30.02,West,267,13.0,20.0,50,0.00,,SKC,0.00,18.00,VWS V14.01,2013-02-12 12:44:00,
2013-02-12 07:45:00,42.6,25.3,30.02,WSW,254,14.0,20.0,50,0.00,,SKC,0.00,16.00,VWS V14.01,2013-02-12 12:45:00,
2013-02-12 07:49:00,42.6,25.3,30.02,West,274,14.0,20.0,50,0.00,,SKC,0.00,18.00,VWS V14.01,2013-02-12 12:49:00,
2013-02-12 07:50:00,42.6,25.3,30.02,WNW,301,4.0,20.0,50,0.00,,SKC,0.00,18.00,VWS V14.01,2013-02-12 12:50:00,
2013-02-12 07:54:00,42.5,25.2,30.02,West,277,10.0,20.0,50,0.00,,SKC,0.00,23.00,VWS V14.01,2013-02-12 12:54:00,
2013-02-12 07:55:00,42.5,25.2,30.02,West,265,5.0,20.0,50,0.00,,SKC,0.00,30.00,VWS V14.01,2013-02-12 12:55:00,
2013-02-12 07:56:00,42.5,25.2,30.02,WNW,291,3.0,20.0,50,0.00,,SKC,0.00,30.00,VWS V14.01,2013-02-12 12:56:00,
2013-02-12 07:59:00,42.4,25.1,30.02,WNW,292,5.0,20.0,50,0.00,,SKC,0.00,35.00,VWS V14.01,2013-02-12 12:59:00,
2013-02-12 08:00:00,42.4,25.1,30.02,WNW,290,4.0,20.0,50,0.00,,SKC,0.00,39.00,VWS V14.01,2013-02-12 13:00:00,
2013-02-12 08:01:00,42.4,25.1,30.02,NNW,335,4.0,20.0,50,0.00,,SKC,0.00,54.00,VWS V14.01,2013-02-12 13:01:00,
2013-02-12 08:04:00,42.4,25.1,30.02,WNW,301,7.0,12.0,50,0.00,,SKC,0.00,44.00,VWS V14.01,2013-02-12 13:04:00,
2013-02-12 08:05:00,42.4,25.1,30.02,West,274,6.0,12.0,50,0.00,,SKC,0.00,40.00,VWS V14.01,2013-02-12 13:05:00,
2013-02-12 08:06:00,42.4,25.1,30.02,West,270,7.0,18.0,50,0.00,,SKC,0.00,40.00,VWS V14.01,2013-02-12 13:06:00,
2013-02-12 08:09:00,42.4,25.1,30.02,West,271,6.0,18.0,50,0.00,,SKC,0.00,37.00,VWS V14.01,2013-02-12 13:09:00,
2013-02-12 08:10:00,42.4,25.1,30.02,WNW,295,7.0,18.0,50,0.00,,SKC,0.00,37.00,VWS V14.01,2013-02-12 13:10:00,
2013-02-12 08:11:00,42.4,25.1,30.02,NW,314,5.0,18.0,50,0.00,,SKC,0.00,37.00,VWS V14.01,2013-02-12 13:11:00,
2013-02-12 08:14:00,42.3,25.5,30.03,West,278,6.0,18.0,51,0.00,,SKC,0.00,39.00,VWS V14.01,2013-02-12 13:14:00,
2013-02-12 08:15:00,42.3,25.5,30.03,NNW,332,5.0,18.0,51,0.00,,SKC,0.00,39.00,VWS V14.01,2013-02-12 13:15:00,
2013-02-12 08:16:00,42.2,25.4,30.03,WSW,249,3.0,18.0,51,0.00,,SKC,0.00,39.00,VWS V14.01,2013-02-12 13:16:00,
2013-02-12 08:20:00,42.2,25.4,30.03,NW,314,5.0,18.0,51,0.00,,SKC,0.00,42.00,VWS V14.01,2013-02-12 13:20:00,
2013-02-12 08:21:00,42.2,25.4,30.03,WNW,286,2.0,18.0,51,0.00,,SKC,0.00,40.00,VWS V14.01,2013-02-12 13:21:00,
2013-02-12 08:25:00,42.1,25.3,30.03,WSW,257,4.0,18.0,51,0.00,,SKC,0.00,42.00,VWS V14.01,2013-02-12 13:25:00,
2013-02-12 08:26:00,42.1,25.3,30.03,WNW,294,10.0,18.0,51,0.00,,SKC,0.00,44.00,VWS V14.01,2013-02-12 13:26:00,
2013-02-12 08:30:00,42.1,25.3,30.03,North,360,2.0,18.0,51,0.00,,SKC,0.00,47.00,VWS V14.01,2013-02-12 13:30:00,
2013-02-12 08:31:00,42.1,25.3,30.03,West,265,6.0,6.0,51,0.00,,SKC,0.00,47.00,VWS V14.01,2013-02-12 13:31:00,
2013-02-12 08:35:00,42.2,25.4,30.03,NW,313,5.0,14.0,51,0.00,,SKC,0.00,69.00,VWS V14.01,2013-02-12 13:35:00,
2013-02-12 08:36:00,42.2,25.4,30.03,WSW,257,6.0,14.0,51,0.00,,SKC,0.00,70.00,VWS V14.01,2013-02-12 13:36:00,
2013-02-12 08:40:00,42.3,25.0,30.03,West,264,7.0,14.0,50,0.00,,SKC,0.00,72.00,VWS V14.01,2013-02-12 13:40:00,
2013-02-12 08:41:00,42.3,25.0,30.03,NNW,340,8.0,14.0,50,0.00,,SKC,0.00,74.00,VWS V14.01,2013-02-12 13:41:00,
2013-02-12 08:42:00,42.3,25.0,30.03,West,271,10.0,14.0,50,0.00,,SKC,0.00,77.00,VWS V14.01,2013-02-12 13:42:00,
2013-02-12 08:45:00,42.4,25.1,30.03,NW,319,3.0,14.0,50,0.00,,SKC,0.00,97.00,VWS V14.01,2013-02-12 13:45:00,
2013-02-12 08:46:00,42.4,25.1,30.03,NW,308,3.0,14.0,50,0.00,,SKC,0.00,97.00,VWS V14.01,2013-02-12 13:46:00,
2013-02-12 08:47:00,42.4,25.1,30.03,WNW,301,2.0,14.0,50,0.00,,SKC,0.00,98.00,VWS V14.01,2013-02-12 13:47:00,
2013-02-12 08:50:00,42.5,25.2,30.03,WNW,294,6.0,16.0,50,0.00,,SKC,0.00,91.00,VWS V14.01,2013-02-12 13:50:00,
2013-02-12 08:51:00,42.5,25.2,30.03,WNW,283,6.0,16.0,50,0.00,,SKC,0.00,91.00,VWS V14.01,2013-02-12 13:51:00,
2013-02-12 08:52:00,42.5,25.2,30.03,WNW,290,3.0,16.0,50,0.00,,SKC,0.00,91.00,VWS V14.01,2013-02-12 13:52:00,
2013-02-12 08:55:00,42.6,25.3,30.02,WNW,301,7.0,21.0,50,0.00,,SKC,0.00,105.00,VWS V14.01,2013-02-12 13:55:00,
2013-02-12 08:56:00,42.6,25.3,30.02,West,281,13.0,21.0,50,0.00,,SKC,0.00,105.00,VWS V14.01,2013-02-12 13:56:00,
2013-02-12 08:57:00,42.6,25.3,30.02,NW,323,8.0,21.0,50,0.00,,SKC,0.00,105.00,VWS V14.01,2013-02-12 13:57:00,
2013-02-12 08:58:00,42.6,25.3,30.03,WNW,300,3.0,21.0,50,0.00,,SKC,0.00,104.00,VWS V14.01,2013-02-12 13:58:00,
2013-02-12 09:01:00,42.7,25.9,30.03,NNW,336,9.0,21.0,51,0.00,,SKC,0.00,97.00,VWS V14.01,2013-02-12 14:01:00,
2013-02-12 09:03:00,42.7,25.4,30.03,West,270,8.0,12.0,50,0.00,,SKC,0.00,88.00,VWS V14.01,2013-02-12 14:03:00,
2013-02-12 09:06:00,42.8,25.5,30.03,WNW,294,6.0,14.0,50,0.00,,SKC,0.00,91.00,VWS V14.01,2013-02-12 14:06:00,
2013-02-12 09:07:00,42.8,25.0,30.03,WSW,251,6.0,14.0,49,0.00,,SKC,0.00,91.00,VWS V14.01,2013-02-12 14:07:00,
2013-02-12 09:08:00,42.8,25.0,30.03,West,268,4.0,14.0,49,0.00,,SKC,0.00,93.00,VWS V14.01,2013-02-12 14:08:00,
2013-02-12 09:11:00,42.9,25.1,30.03,WNW,282,9.0,16.0,49,0.00,,SKC,0.00,109.00,VWS V14.01,2013-02-12 14:11:00,
2013-02-12 09:12:00,42.9,25.1,30.03,NNW,333,4.0,16.0,49,0.00,,SKC,0.00,111.00,VWS V14.01,2013-02-12 14:12:00,
2013-02-12 09:13:00,43.0,25.2,30.03,WNW,290,6.0,16.0,49,0.00,,SKC,0.00,113.00,VWS V14.01,2013-02-12 14:13:00,
2013-02-12 09:16:00,43.1,25.3,30.03,West,265,4.0,16.0,49,0.00,,SKC,0.00,121.00,VWS V14.01,2013-02-12 14:16:00,
2013-02-12 09:17:00,43.1,25.3,30.03,West,271,3.0,16.0,49,0.00,,SKC,0.00,127.00,VWS V14.01,2013-02-12 14:17:00,
2013-02-12 09:18:00,43.2,25.4,30.03,NNW,348,8.0,16.0,49,0.00,,SKC,0.00,123.00,VWS V14.01,2013-02-12 14:18:00,
2013-02-12 09:21:00,43.3,25.4,30.03,NW,306,8.0,16.0,49,0.00,,SKC,0.00,116.00,VWS V14.01,2013-02-12 14:21:00,
2013-02-12 09:22:00,43.3,24.9,30.03,WNW,282,7.0,16.0,48,0.00,,SKC,0.00,123.00,VWS V14.01,2013-02-12 14:22:00,
2013-02-12 09:24:00,43.3,25.4,30.03,WNW,290,10.0,16.0,49,0.00,,SKC,0.00,144.00,VWS V14.01,2013-02-12 14:24:00,
2013-02-12 09:26:00,43.4,25.0,30.03,WNW,300,2.0,19.0,48,0.00,,SKC,0.00,156.00,VWS V14.01,2013-02-12 14:26:00,
2013-02-12 09:27:00,43.4,25.5,30.03,West,263,11.0,19.0,49,0.00,,SKC,0.00,155.00,VWS V14.01,2013-02-12 14:27:00,
2013-02-12 09:29:00,43.5,25.1,30.03,WNW,283,9.0,19.0,48,0.00,,SKC,0.00,153.00,VWS V14.01,2013-02-12 14:29:00,
2013-02-12 09:31:00,43.5,25.1,30.03,WSW,250,1.0,4.0,48,0.00,,SKC,0.00,156.00,VWS V14.01,2013-02-12 14:31:00,
2013-02-12 09:33:00,43.6,25.2,30.03,NW,319,9.0,12.0,48,0.00,,SKC,0.00,153.00,VWS V14.01,2013-02-12 14:33:00,
2013-02-12 09:34:00,43.7,25.3,30.03,WNW,285,5.0,12.0,48,0.00,,SKC,0.00,158.00,VWS V14.01,2013-02-12 14:34:00,
2013-02-12 09:36:00,43.8,25.4,30.03,West,262,7.0,14.0,48,0.00,,SKC,0.00,162.00,VWS V14.01,2013-02-12 14:36:00,
2013-02-12 09:38:00,43.9,25.5,30.03,SW,220,8.0,14.0,48,0.00,,SKC,0.00,158.00,VWS V14.01,2013-02-12 14:38:00,
2013-02-12 09:39:00,44.0,25.1,30.03,West,262,9.0,14.0,47,0.00,,SKC,0.00,144.00,VWS V14.01,2013-02-12 14:39:00,
2013-02-12 09:42:00,44.1,25.2,30.03,NW,313,6.0,14.0,47,0.00,,SKC,0.00,135.00,VWS V14.01,2013-02-12 14:42:00,
2013-02-12 09:43:00,44.1,25.2,30.03,NW,304,2.0,14.0,47,0.00,,SKC,0.00,141.00,VWS V14.01,2013-02-12 14:43:00,
2013-02-12 09:44:00,44.1,24.7,30.03,WNW,296,0.0,14.0,46,0.00,,SKC,0.00,144.00,VWS V14.01,2013-02-12 14:44:00,
2013-02-12 09:47:00,44.2,25.3,30.03,NW,326,3.0,14.0,47,0.00,,SKC,0.00,137.00,VWS V14.01,2013-02-12 14:47:00,
2013-02-12 09:48:00,44.2,25.3,30.03,WNW,292,2.0,14.0,47,0.00,,SKC,0.00,123.00,VWS V14.01,2013-02-12 14:48:00,
2013-02-12 09:49:00,44.3,25.4,30.03,WNW,292,1.0,14.0,47,0.00,,SKC,0.00,123.00,VWS V14.01,2013-02-12 14:49:00,
2013-02-12 09:52:00,44.3,24.3,30.03,NNW,338,4.0,14.0,45,0.00,,SKC,0.00,163.00,VWS V14.01,2013-02-12 14:52:00,
2013-02-12 09:53:00,44.4,24.4,30.03,NNW,338,8.0,17.0,45,0.00,,SKC,0.00,206.00,VWS V14.01,2013-02-12 14:53:00,
2013-02-12 09:54:00,44.4,24.4,30.03,WNW,294,13.0,17.0,45,0.00,,SKC,0.00,206.00,VWS V14.01,2013-02-12 14:54:00,
2013-02-12 09:57:00,44.5,24.5,30.03,West,263,14.0,17.0,45,0.00,,SKC,0.00,151.00,VWS V14.01,2013-02-12 14:57:00,
2013-02-12 09:58:00,44.6,24.6,30.04,WSW,238,4.0,17.0,45,0.00,,SKC,0.00,155.00,VWS V14.01,2013-02-12 14:58:00,
2013-02-12 09:59:00,44.6,24.6,30.04,West,279,10.0,17.0,45,0.00,,SKC,0.00,158.00,VWS V14.01,2013-02-12 14:59:00,
2013-02-12 10:02:00,44.7,24.1,30.03,NW,323,3.0,12.0,44,0.00,,SKC,0.00,179.00,VWS V14.01,2013-02-12 15:02:00,
2013-02-12 10:03:00,44.8,24.2,30.04,West,271,7.0,12.0,44,0.00,,SKC,0.00,176.00,VWS V14.01,2013-02-12 15:03:00,
2013-02-12 10:04:00,44.8,24.2,30.03,WSW,251,10.0,12.0,44,0.00,,SKC,0.00,186.00,VWS V14.01,2013-02-12 15:04:00,
2013-02-12 10:07:00,44.9,24.9,30.03,West,273,4.0,12.0,45,0.00,,SKC,0.00,190.00,VWS V14.01,2013-02-12 15:07:00,
2013-02-12 10:08:00,45.0,24.4,30.03,West,259,6.0,12.0,44,0.00,,SKC,0.00,183.00,VWS V14.01,2013-02-12 15:08:00,
2013-02-12 10:09:00,45.0,24.4,30.03,West,276,5.0,12.0,44,0.00,,SKC,0.00,183.00,VWS V14.01,2013-02-12 15:09:00,
2013-02-12 10:10:00,45.0,24.4,30.03,West,262,6.0,12.0,44,0.00,,SKC,0.00,171.00,VWS V14.01,2013-02-12 15:10:00,
2013-02-12 10:12:00,45.1,24.5,30.03,NNW,334,8.0,14.0,44,0.00,,SKC,0.00,167.00,VWS V14.01,2013-02-12 15:12:00,
2013-02-12 10:13:00,45.1,24.5,30.03,NNE,15,0.0,14.0,44,0.00,,SKC,0.00,163.00,VWS V14.01,2013-02-12 15:13:00,
2013-02-12 10:14:00,45.2,24.6,30.03,NNE,15,0.0,14.0,44,0.00,,SKC,0.00,160.00,VWS V14.01,2013-02-12 15:14:00,
2013-02-12 10:15:00,45.2,24.6,30.04,West,271,4.0,14.0,44,0.00,,SKC,0.00,163.00,VWS V14.01,2013-02-12 15:15:00,
2013-02-12 10:17:00,45.2,24.6,30.04,West,263,1.0,14.0,44,0.00,,SKC,0.00,202.00,VWS V14.01,2013-02-12 15:17:00,
2013-02-12 10:19:00,45.3,24.7,30.03,South,169,1.0,14.0,44,0.00,,SKC,0.00,225.00,VWS V14.01,2013-02-12 15:19:00,
2013-02-12 10:20:00,45.4,24.8,30.04,NNW,335,3.0,14.0,44,0.00,,SKC,0.00,260.00,VWS V14.01,2013-02-12 15:20:00,
2013-02-12 10:23:00,45.6,25.0,30.03,West,275,3.0,14.0,44,0.00,,SKC,0.00,297.00,VWS V14.01,2013-02-12 15:23:00,
2013-02-12 10:24:00,45.7,24.5,30.03,NNW,343,4.0,14.0,43,0.00,,SKC,0.00,288.00,VWS V14.01,2013-02-12 15:24:00,
2013-02-12 10:26:00,45.9,25.2,30.03,North,360,4.0,14.0,44,0.00,,SKC,0.00,283.00,VWS V14.01,2013-02-12 15:26:00,
2013-02-12 10:28:00,46.2,25.5,30.03,NW,311,3.0,14.0,44,0.00,,SKC,0.00,221.00,VWS V14.01,2013-02-12 15:28:00,
2013-02-12 10:29:00,46.3,25.6,30.03,NNW,348,6.0,14.0,44,0.00,,SKC,0.00,209.00,VWS V14.01,2013-02-12 15:29:00,
2013-02-12 10:31:00,46.3,25.6,30.03,NW,309,10.0,14.0,44,0.00,,SKC,0.00,223.00,VWS V14.01,2013-02-12 15:31:00,
2013-02-12 10:33:00,46.4,24.6,30.03,NNW,336,6.0,17.0,42,0.00,,SKC,0.00,230.00,VWS V14.01,2013-02-12 15:33:00,
2013-02-12 10:34:00,46.4,25.1,30.03,NW,304,9.0,17.0,43,0.00,,SKC,0.00,227.00,VWS V14.01,2013-02-12 15:34:00,
2013-02-12 10:35:00,46.4,25.1,30.03,North,360,2.0,17.0,43,0.00,,SKC,0.00,223.00,VWS V14.01,2013-02-12 15:35:00,
2013-02-12 10:36:00,46.4,25.1,30.03,West,267,6.0,17.0,43,0.00,,SKC,0.00,221.00,VWS V14.01,2013-02-12 15:36:00,
2013-02-12 10:38:00,46.5,24.7,30.03,NW,306,3.0,17.0,42,0.00,,SKC,0.00,220.00,VWS V14.01,2013-02-12 15:38:00,
2013-02-12 10:40:00,46.6,25.3,30.03,West,268,3.0,17.0,43,0.00,,SKC,0.00,229.00,VWS V14.01,2013-02-12 15:40:00,
2013-02-12 10:41:00,46.7,25.4,30.03,NW,304,1.0,17.0,43,0.00,,SKC,0.00,236.00,VWS V14.01,2013-02-12 15:41:00,
2013-02-12 10:43:00,46.8,25.5,30.03,NW,312,8.0,17.0,43,0.00,,SKC,0.00,257.00,VWS V14.01,2013-02-12 15:43:00,
2013-02-12 10:45:00,46.9,25.0,30.03,WSW,257,2.0,17.0,42,0.00,,SKC,0.00,287.00,VWS V14.01,2013-02-12 15:45:00,
2013-02-12 10:46:00,46.9,24.5,30.03,WSW,237,5.0,17.0,41,0.00,,SKC,0.00,274.00,VWS V14.01,2013-02-12 15:46:00,
2013-02-12 10:48:00,47.1,24.6,30.04,West,266,7.0,17.0,41,0.00,,SKC,0.00,281.00,VWS V14.01,2013-02-12 15:48:00,
2013-02-12 10:50:00,47.2,25.3,30.04,West,259,4.0,17.0,42,0.00,,SKC,0.00,287.00,VWS V14.01,2013-02-12 15:50:00,
2013-02-12 10:51:00,47.3,24.8,30.04,WNW,290,8.0,17.0,41,0.00,,SKC,0.00,294.00,VWS V14.01,2013-02-12 15:51:00,
2013-02-12 10:53:00,47.5,25.0,30.04,WNW,300,5.0,17.0,41,0.00,,SKC,0.00,297.00,VWS V14.01,2013-02-12 15:53:00,
2013-02-12 10:55:00,47.6,25.1,30.04,WSW,254,7.0,17.0,41,0.00,,SKC,0.00,285.00,VWS V14.01,2013-02-12 15:55:00,
2013-02-12 10:56:00,47.7,25.2,30.04,West,274,3.0,17.0,41,0.00,,SKC,0.00,281.00,VWS V14.01,2013-02-12 15:56:00,
2013-02-12 10:58:00,47.9,24.8,30.04,North,355,7.0,17.0,40,0.00,,SKC,0.00,287.00,VWS V14.01,2013-02-12 15:58:00,
2013-02-12 11:00:00,48.0,25.4,30.05,SW,230,5.0,17.0,41,0.00,,SKC,0.00,297.00,VWS V14.01,2013-02-12 16:00:00,
2013-02-12 11:01:00,48.1,25.5,30.05,WSW,241,5.0,17.0,41,0.00,,SKC,0.00,297.00,VWS V14.01,2013-02-12 16:01:00,
2013-02-12 11:03:00,48.0,24.9,30.05,SSW,204,1.0,11.0,40,0.00,,SKC,0.00,302.00,VWS V14.01,2013-02-12 16:03:00,
2013-02-12 11:05:00,48.0,24.2,30.05,NNE,12,3.0,11.0,39,0.00,,SKC,0.00,316.00,VWS V14.01,2013-02-12 16:05:00,
2013-02-12 11:06:00,48.0,24.9,30.05,NNE,12,0.0,11.0,40,0.00,,SKC,0.00,316.00,VWS V14.01,2013-02-12 16:06:00,
2013-02-12 11:08:00,48.4,25.8,30.05,SSW,211,2.0,11.0,41,0.00,,SKC,0.00,362.00,VWS V14.01,2013-02-12 16:08:00,
2013-02-12 11:10:00,48.6,25.4,30.05,West,271,8.0,11.0,40,0.00,,SKC,0.00,352.00,VWS V14.01,2013-02-12 16:10:00,
2013-02-12 11:11:00,48.6,24.8,30.05,WSW,258,4.0,11.0,39,0.00,,SKC,0.00,352.00,VWS V14.01,2013-02-12 16:11:00,
2013-02-12 11:14:00,48.8,25.0,30.05,SW,230,4.0,11.0,39,0.00,,SKC,0.00,353.00,VWS V14.01,2013-02-12 16:14:00,
2013-02-12 11:15:00,48.9,24.4,30.04,SW,229,7.0,11.0,38,0.00,,SKC,0.00,329.00,VWS V14.01,2013-02-12 16:15:00,
2013-02-12 11:16:00,48.9,24.4,30.05,SW,228,6.0,11.0,38,0.00,,SKC,0.00,329.00,VWS V14.01,2013-02-12 16:16:00,
2013-02-12 11:19:00,48.8,25.6,30.04,ESE,117,3.0,11.0,40,0.00,,SKC,0.00,322.00,VWS V14.01,2013-02-12 16:19:00,
2013-02-12 11:20:00,48.8,26.2,30.04,SSE,150,0.0,11.0,41,0.00,,SKC,0.00,309.00,VWS V14.01,2013-02-12 16:20:00,
2013-02-12 11:21:00,49.0,26.9,30.04,SSE,150,1.0,11.0,42,0.00,,SKC,0.00,306.00,VWS V14.01,2013-02-12 16:21:00,
2013-02-12 11:22:00,49.0,26.9,30.04,SSE,150,0.0,11.0,42,0.00,,SKC,0.00,309.00,VWS V14.01,2013-02-12 16:22:00,
2013-02-12 11:24:00,49.2,25.9,30.05,SSE,150,0.0,11.0,40,0.00,,SKC,0.00,320.00,VWS V14.01,2013-02-12 16:24:00,
2013-02-12 11:25:00,49.5,26.2,30.04,North,360,4.0,11.0,40,0.00,,SKC,0.00,323.00,VWS V14.01,2013-02-12 16:25:00,
2013-02-12 11:26:00,49.6,25.7,30.04,North,360,0.0,11.0,39,0.00,,SKC,0.00,306.00,VWS V14.01,2013-02-12 16:26:00,
2013-02-12 11:27:00,49.7,25.8,30.04,North,5,0.0,11.0,39,0.00,,SKC,0.00,299.00,VWS V14.01,2013-02-12 16:27:00,
2013-02-12 11:29:00,49.9,26.0,30.04,SE,132,2.0,11.0,39,0.00,,SKC,0.00,287.00,VWS V14.01,2013-02-12 16:29:00,
2013-02-12 11:30:00,50.0,24.8,30.04,SW,234,2.0,11.0,37,0.00,,SKC,0.00,287.00,VWS V14.01,2013-02-12 16:30:00,
2013-02-12 11:32:00,50.0,24.8,30.04,SSW,211,4.0,8.0,37,0.00,,SKC,0.00,287.00,VWS V14.01,2013-02-12 16:32:00,
2013-02-12 11:34:00,50.4,27.0,30.04,North,11,2.0,8.0,40,0.00,,SKC,0.00,287.00,VWS V14.01,2013-02-12 16:34:00,
2013-02-12 11:36:00,50.8,25.5,30.04,West,279,3.0,8.0,37,0.00,,SKC,0.00,348.00,VWS V14.01,2013-02-12 16:36:00,
2013-02-12 11:37:00,50.9,25.6,30.04,WSW,238,4.0,11.0,37,0.00,,SKC,0.00,374.00,VWS V14.01,2013-02-12 16:37:00,
2013-02-12 11:39:00,51.0,24.3,30.04,West,277,4.0,11.0,35,0.00,,SKC,0.00,663.00,VWS V14.01,2013-02-12 16:39:00,
2013-02-12 11:41:00,51.0,24.3,30.04,NW,315,1.0,11.0,35,0.00,,SKC,0.00,663.00,VWS V14.01,2013-02-12 16:41:00,
2013-02-12 11:42:00,51.1,24.4,30.04,NNW,346,2.0,11.0,35,0.00,,SKC,0.00,422.00,VWS V14.01,2013-02-12 16:42:00,
2013-02-12 11:43:00,51.1,24.4,30.04,NNW,329,4.0,11.0,35,0.00,,SKC,0.00,397.00,VWS V14.01,2013-02-12 16:43:00,
2013-02-12 11:44:00,51.3,25.9,30.04,NNW,339,2.0,11.0,37,0.00,,SKC,0.00,350.00,VWS V14.01,2013-02-12 16:44:00,
2013-02-12 11:46:00,51.4,26.7,30.04,NNW,344,4.0,11.0,38,0.00,,SKC,0.00,443.00,VWS V14.01,2013-02-12 16:46:00,
2013-02-12 11:47:00,51.6,24.9,30.04,NNW,336,5.0,11.0,35,0.00,,SKC,0.00,443.00,VWS V14.01,2013-02-12 16:47:00,
2013-02-12 11:48:00,51.6,24.9,30.04,NNW,340,5.0,11.0,35,0.00,,SKC,0.00,443.00,VWS V14.01,2013-02-12 16:48:00,
2013-02-12 11:49:00,51.8,25.7,30.03,WSW,255,2.0,11.0,36,0.00,,SKC,0.00,367.00,VWS V14.01,2013-02-12 16:49:00,
2013-02-12 11:51:00,51.8,24.3,30.03,West,273,3.0,11.0,34,0.00,,SKC,0.00,387.00,VWS V14.01,2013-02-12 16:51:00,
2013-02-12 11:52:00,51.7,25.0,30.03,West,270,8.0,11.0,35,0.00,,SKC,0.00,330.00,VWS V14.01,2013-02-12 16:52:00,
2013-02-12 11:53:00,51.6,24.9,30.04,WNW,298,7.0,11.0,35,0.00,,SKC,0.00,330.00,VWS V14.01,2013-02-12 16:53:00,
2013-02-12 11:54:00,51.5,23.4,30.03,WNW,291,9.0,12.0,33,0.00,,SKC,0.00,352.00,VWS V14.01,2013-02-12 16:54:00,
2013-02-12 11:56:00,51.4,24.7,30.03,NNW,332,6.0,12.0,35,0.00,,SKC,0.00,431.00,VWS V14.01,2013-02-12 16:56:00,
2013-02-12 11:58:00,51.2,23.8,30.03,NNW,339,4.0,12.0,34,0.00,,SKC,0.00,383.00,VWS V14.01,2013-02-12 16:58:00,
2013-02-12 11:59:00,51.2,23.8,30.03,WNW,302,7.0,12.0,34,0.00,,SKC,0.00,362.00,VWS V14.01,2013-02-12 16:59:00,
2013-02-12 12:01:00,51.1,23.0,30.03,NNW,340,8.0,12.0,33,0.00,,SKC,0.00,362.00,VWS V14.01,2013-02-12 17:01:00,
2013-02-12 12:03:00,51.0,22.9,30.03,NW,319,9.0,10.0,33,0.00,,SKC,0.00,524.00,VWS V14.01,2013-02-12 17:03:00,
2013-02-12 12:05:00,50.9,23.5,30.03,North,355,4.0,10.0,34,0.00,,SKC,0.00,320.00,VWS V14.01,2013-02-12 17:05:00,
2013-02-12 12:06:00,50.9,23.5,30.02,NNW,331,5.0,10.0,34,0.00,,SKC,0.00,320.00,VWS V14.01,2013-02-12 17:06:00,
2013-02-12 12:08:00,51.0,23.6,30.02,West,275,7.0,10.0,34,0.00,,SKC,0.00,445.00,VWS V14.01,2013-02-12 17:08:00,
2013-02-12 12:09:00,51.0,23.6,30.02,West,261,9.0,11.0,34,0.00,,SKC,0.00,524.00,VWS V14.01,2013-02-12 17:09:00,
2013-02-12 12:10:00,51.0,23.6,30.02,WSW,257,8.0,12.0,34,0.00,,SKC,0.00,524.00,VWS V14.01,2013-02-12 17:10:00,
2013-02-12 12:11:00,50.8,24.1,30.02,West,271,9.0,12.0,35,0.00,,SKC,0.00,385.00,VWS V14.01,2013-02-12 17:11:00,
2013-02-12 12:13:00,50.6,24.0,30.02,West,281,7.0,12.0,35,0.00,,SKC,0.00,466.00,VWS V14.01,2013-02-12 17:13:00,
2013-02-12 12:14:00,50.7,23.4,30.02,North,11,4.0,12.0,34,0.00,,SKC,0.00,466.00,VWS V14.01,2013-02-12 17:14:00,
2013-02-12 12:15:00,50.8,23.5,30.02,West,263,4.0,12.0,34,0.00,,SKC,0.00,696.00,VWS V14.01,2013-02-12 17:15:00,
2013-02-12 12:17:00,51.1,23.0,30.02,NW,325,0.0,12.0,33,0.00,,SKC,0.00,700.00,VWS V14.01,2013-02-12 17:17:00,
2013-02-12 12:18:00,51.5,24.1,30.02,WSW,240,1.0,12.0,34,0.00,,SKC,0.00,700.00,VWS V14.01,2013-02-12 17:18:00,
2013-02-12 12:19:00,52.2,26.1,30.01,SW,236,2.0,12.0,36,0.00,,SKC,0.00,438.00,VWS V14.01,2013-02-12 17:19:00,
2013-02-12 12:20:00,52.3,25.5,30.01,NNW,327,2.0,12.0,35,0.00,,SKC,0.00,438.00,VWS V14.01,2013-02-12 17:20:00,
2013-02-12 12:22:00,52.7,25.1,30.01,NNW,336,0.0,12.0,34,0.00,,SKC,0.00,417.00,VWS V14.01,2013-02-12 17:22:00,
2013-02-12 12:23:00,53.0,26.8,30.01,WNW,294,3.0,12.0,36,0.00,,SKC,0.00,387.00,VWS V14.01,2013-02-12 17:23:00,
2013-02-12 12:24:00,53.0,24.7,30.01,WSW,242,2.0,12.0,33,0.00,,SKC,0.00,439.00,VWS V14.01,2013-02-12 17:24:00,
2013-02-12 12:25:00,53.0,24.7,30.01,WSW,242,2.0,12.0,33,0.00,,SKC,0.00,439.00,VWS V14.01,2013-02-12 17:25:00,
2013-02-12 12:27:00,52.4,24.2,30.01,West,266,4.0,12.0,33,0.00,,SKC,0.00,729.00,VWS V14.01,2013-02-12 17:27:00,
2013-02-12 12:28:00,52.4,24.2,30.01,West,263,1.0,12.0,33,0.00,,SKC,0.00,705.00,VWS V14.01,2013-02-12 17:28:00,
2013-02-12 12:30:00,52.6,25.0,30.00,WNW,283,0.0,12.0,34,0.00,,SKC,0.00,698.00,VWS V14.01,2013-02-12 17:30:00,
2013-02-12 12:32:00,54.0,24.8,30.00,NNW,337,2.0,4.0,32,0.00,,SKC,0.00,691.00,VWS V14.01,2013-02-12 17:32:00,
2013-02-12 12:34:00,54.0,24.1,30.00,NNW,337,1.0,4.0,31,0.00,,SKC,0.00,691.00,VWS V14.01,2013-02-12 17:34:00,
2013-02-12 12:35:00,53.9,24.0,30.00,NNW,337,0.0,4.0,31,0.00,,SKC,0.00,693.00,VWS V14.01,2013-02-12 17:35:00,
2013-02-12 12:38:00,53.7,23.8,29.99,WSW,257,4.0,7.0,31,0.00,,SKC,0.00,691.00,VWS V14.01,2013-02-12 17:38:00,
2013-02-12 12:39:00,53.6,23.7,29.99,West,265,2.0,7.0,31,0.00,,SKC,0.00,691.00,VWS V14.01,2013-02-12 17:39:00,
2013-02-12 12:40:00,53.5,23.6,29.99,North,5,3.0,7.0,31,0.00,,SKC,0.00,694.00,VWS V14.01,2013-02-12 17:40:00,
2013-02-12 12:43:00,53.2,22.6,29.99,NNW,347,5.0,12.0,30,0.00,,SKC,0.00,696.00,VWS V14.01,2013-02-12 17:43:00,
2013-02-12 12:44:00,53.1,22.5,29.99,NNW,346,6.0,12.0,30,0.00,,SKC,0.00,696.00,VWS V14.01,2013-02-12 17:44:00,
2013-02-12 12:45:00,53.1,24.0,29.99,NNW,346,1.0,12.0,32,0.00,,SKC,0.00,696.00,VWS V14.01,2013-02-12 17:45:00,
2013-02-12 12:48:00,53.8,23.9,29.99,North,5,8.0,12.0,31,0.00,,SKC,0.00,698.00,VWS V14.01,2013-02-12 17:48:00,
2013-02-12 12:49:00,53.8,23.9,29.98,NNE,30,5.0,12.0,31,0.00,,SKC,0.00,698.00,VWS V14.01,2013-02-12 17:49:00,
2013-02-12 12:50:00,53.7,23.0,29.98,NNW,328,7.0,12.0,30,0.00,,SKC,0.00,698.00,VWS V14.01,2013-02-12 17:50:00,
2013-02-12 12:53:00,53.9,24.0,29.98,NNW,338,4.0,12.0,31,0.00,,SKC,0.00,698.00,VWS V14.01,2013-02-12 17:53:00,
2013-02-12 12:54:00,53.9,24.0,29.98,WNW,283,3.0,12.0,31,0.00,,SKC,0.00,696.00,VWS V14.01,2013-02-12 17:54:00,
2013-02-12 12:55:00,54.0,24.8,29.98,West,269,4.0,12.0,32,0.00,,SKC,0.00,696.00,VWS V14.01,2013-02-12 17:55:00,
2013-02-12 12:58:00,53.7,23.8,29.97,NNW,333,6.0,12.0,31,0.00,,SKC,0.00,698.00,VWS V14.01,2013-02-12 17:58:00,
2013-02-12 12:59:00,53.7,23.0,29.97,NNW,336,5.0,12.0,30,0.00,,SKC,0.00,700.00,VWS V14.01,2013-02-12 17:59:00,
2013-02-12 13:00:00,53.7,23.8,29.97,WSW,254,5.0,12.0,31,0.00,,SKC,0.00,700.00,VWS V14.01,2013-02-12 18:00:00,
2013-02-12 13:01:00,53.7,23.8,29.97,WNW,302,7.0,12.0,31,0.00,,SKC,0.00,698.00,VWS V14.01,2013-02-12 18:01:00,
2013-02-12 13:04:00,53.8,23.1,29.96,NW,311,1.0,11.0,30,0.00,,SKC,0.00,700.00,VWS V14.01,2013-02-12 18:04:00,
2013-02-12 13:05:00,53.8,23.9,29.95,WNW,294,2.0,11.0,31,0.00,,SKC,0.00,696.00,VWS V14.01,2013-02-12 18:05:00,
2013-02-12 13:06:00,53.9,24.0,29.95,West,273,4.0,11.0,31,0.00,,SKC,0.00,700.00,VWS V14.01,2013-02-12 18:06:00,
2013-02-12 13:09:00,53.9,23.2,29.95,West,279,8.0,11.0,30,0.00,,SKC,0.00,696.00,VWS V14.01,2013-02-12 18:09:00,
2013-02-12 13:10:00,53.9,23.2,29.95,WNW,283,6.0,11.0,30,0.00,,SKC,0.00,698.00,VWS V14.01,2013-02-12 18:10:00,
2013-02-12 13:11:00,53.8,23.1,29.95,WNW,290,6.0,11.0,30,0.00,,SKC,0.00,698.00,VWS V14.01,2013-02-12 18:11:00,
2013-02-12 13:14:00,53.6,23.7,29.94,North,355,3.0,11.0,31,0.00,,SKC,0.00,696.00,VWS V14.01,2013-02-12 18:14:00,
2013-02-12 13:15:00,53.6,22.9,29.94,North,355,3.0,11.0,30,0.00,,SKC,0.00,696.00,VWS V14.01,2013-02-12 18:15:00,
2013-02-12 13:16:00,53.6,22.1,29.94,North,355,0.0,11.0,29,0.00,,SKC,0.00,696.00,VWS V14.01,2013-02-12 18:16:00,
2013-02-12 13:19:00,54.4,22.8,29.93,WSW,241,6.0,11.0,29,0.00,,SKC,0.00,696.00,VWS V14.01,2013-02-12 18:19:00,
2013-02-12 13:20:00,54.2,22.6,29.93,SW,223,6.0,11.0,29,0.00,,SKC,0.00,696.00,VWS V14.01,2013-02-12 18:20:00,
2013-02-12 13:21:00,53.9,22.4,29.92,WSW,241,1.0,11.0,29,0.00,,SKC,0.00,696.00,VWS V14.01,2013-02-12 18:21:00,
2013-02-12 13:24:00,53.8,22.3,29.91,SW,226,1.0,11.0,29,0.00,,SKC,0.00,696.00,VWS V14.01,2013-02-12 18:24:00,
2013-02-12 13:25:00,53.8,23.9,29.91,NW,323,8.0,11.0,31,0.00,,SKC,0.00,698.00,VWS V14.01,2013-02-12 18:25:00,
2013-02-12 13:26:00,53.9,23.2,29.92,WSW,252,5.0,11.0,30,0.00,,SKC,0.00,696.00,VWS V14.01,2013-02-12 18:26:00,
2013-02-12 13:29:00,53.9,22.4,29.93,NW,316,1.0,11.0,29,0.00,,SKC,0.00,705.00,VWS V14.01,2013-02-12 18:29:00,
2013-02-12 13:30:00,53.9,22.4,29.93,NW,317,1.0,11.0,29,0.00,,SKC,0.00,708.00,VWS V14.01,2013-02-12 18:30:00,
2013-02-12 13:31:00,54.2,23.5,29.93,NW,317,1.0,11.0,30,0.00,,SKC,0.00,715.00,VWS V14.01,2013-02-12 18:31:00,
2013-02-12 13:32:00,54.6,23.8,29.93,NW,317,0.0,3.0,30,0.00,,SKC,0.00,731.00,VWS V14.01,2013-02-12 18:32:00,
2013-02-12 13:34:00,55.1,23.4,29.94,West,271,3.0,6.0,29,0.00,,SKC,0.00,401.00,VWS V14.01,2013-02-12 18:34:00,
2013-02-12 13:35:00,55.1,22.6,29.94,West,273,1.0,6.0,28,0.00,,SKC,0.00,383.00,VWS V14.01,2013-02-12 18:35:00,
2013-02-12 13:36:00,54.9,23.3,29.94,SW,234,5.0,6.0,29,0.00,,SKC,0.00,338.00,VWS V14.01,2013-02-12 18:36:00,
2013-02-12 13:37:00,54.8,23.2,29.94,WSW,250,4.0,6.0,29,0.00,,SKC,0.00,338.00,VWS V14.01,2013-02-12 18:37:00,
2013-02-12 13:39:00,54.7,23.9,29.95,WSW,240,6.0,8.0,30,0.00,,SKC,0.00,439.00,VWS V14.01,2013-02-12 18:39:00,
2013-02-12 13:40:00,54.8,23.2,29.95,WNW,293,7.0,10.0,29,0.00,,SKC,0.00,429.00,VWS V14.01,2013-02-12 18:40:00,
2013-02-12 13:41:00,54.9,22.4,29.95,NW,305,2.0,10.0,28,0.00,,SKC,0.00,346.00,VWS V14.01,2013-02-12 18:41:00,
2013-02-12 13:42:00,54.9,22.4,29.95,WNW,290,2.0,10.0,28,0.00,,SKC,0.00,343.00,VWS V14.01,2013-02-12 18:42:00,
2013-02-12 13:45:00,54.7,22.3,29.97,SSW,206,1.0,10.0,28,0.00,,SKC,0.00,403.00,VWS V14.01,2013-02-12 18:45:00,
2013-02-12 13:46:00,54.7,23.1,29.97,SSW,210,0.0,10.0,29,0.00,,SKC,0.00,406.00,VWS V14.01,2013-02-12 18:46:00,
2013-02-12 13:47:00,54.8,23.2,29.97,NW,321,2.0,10.0,29,0.00,,SKC,0.00,410.00,VWS V14.01,2013-02-12 18:47:00,
2013-02-12 13:50:00,55.3,23.6,29.97,West,275,4.0,10.0,29,0.00,,SKC,0.00,554.00,VWS V14.01,2013-02-12 18:50:00,
2013-02-12 13:51:00,55.4,22.9,29.97,WNW,294,4.0,10.0,28,0.00,,SKC,0.00,554.00,VWS V14.01,2013-02-12 18:51:00,
2013-02-12 13:52:00,55.5,23.0,29.97,SSW,199,5.0,10.0,28,0.00,,SKC,0.00,406.00,VWS V14.01,2013-02-12 18:52:00,
2013-02-12 13:55:00,55.7,23.1,29.98,West,262,5.0,10.0,28,0.00,,SKC,0.00,526.00,VWS V14.01,2013-02-12 18:55:00,
2013-02-12 13:57:00,55.9,23.3,29.98,West,274,5.0,10.0,28,0.00,,SKC,0.00,657.00,VWS V14.01,2013-02-12 18:57:00,
2013-02-12 14:00:00,55.5,22.1,29.99,WSW,241,6.0,10.0,27,0.00,,SKC,0.00,612.00,VWS V14.01,2013-02-12 19:00:00,
2013-02-12 14:02:00,55.5,23.0,29.99,SW,225,7.0,7.0,28,0.00,,SKC,0.00,598.00,VWS V14.01,2013-02-12 19:02:00,
2013-02-12 14:05:00,55.3,23.6,29.99,SSW,206,4.0,13.0,29,0.00,,SKC,0.00,649.00,VWS V14.01,2013-02-12 19:05:00,
2013-02-12 14:07:00,55.4,24.5,29.99,SW,215,4.0,13.0,30,0.00,,SKC,0.00,657.00,VWS V14.01,2013-02-12 19:07:00,
2013-02-12 14:11:00,55.9,24.1,29.99,SW,226,14.0,14.0,29,0.00,,SKC,0.00,615.00,VWS V14.01,2013-02-12 19:11:00,
2013-02-12 14:12:00,55.7,23.1,29.99,SSW,212,11.0,17.0,28,0.00,,SKC,0.00,612.00,VWS V14.01,2013-02-12 19:12:00,
2013-02-12 14:13:00,55.5,23.0,29.99,SW,226,10.0,17.0,28,0.00,,SKC,0.00,624.00,VWS V14.01,2013-02-12 19:13:00,
2013-02-12 14:16:00,55.3,21.9,29.99,West,277,8.0,17.0,27,0.00,,SKC,0.00,580.00,VWS V14.01,2013-02-12 19:16:00,
2013-02-12 14:17:00,55.3,21.9,29.99,WSW,243,7.0,17.0,27,0.00,,SKC,0.00,603.00,VWS V14.01,2013-02-12 19:17:00,
2013-02-12 14:18:00,55.4,23.7,29.99,West,264,5.0,17.0,29,0.00,,SKC,0.00,584.00,VWS V14.01,2013-02-12 19:18:00,
2013-02-12 14:21:00,55.8,24.0,29.99,WSW,250,3.0,17.0,29,0.00,,SKC,0.00,608.00,VWS V14.01,2013-02-12 19:21:00,
2013-02-12 14:22:00,55.9,23.3,29.99,West,266,1.0,17.0,28,0.00,,SKC,0.00,522.00,VWS V14.01,2013-02-12 19:22:00,
2013-02-12 14:23:00,56.0,24.2,29.99,West,261,4.0,17.0,29,0.00,,SKC,0.00,545.00,VWS V14.01,2013-02-12 19:23:00,
2013-02-12 14:26:00,56.3,24.5,29.99,SW,229,3.0,17.0,29,0.00,,SKC,0.00,531.00,VWS V14.01,2013-02-12 19:26:00,
2013-02-12 14:28:00,56.3,24.5,29.99,SSW,211,7.0,17.0,29,0.00,,SKC,0.00,462.00,VWS V14.01,2013-02-12 19:28:00,
2013-02-12 14:31:00,55.3,22.8,29.99,WSW,257,3.0,3.0,28,0.00,,SKC,0.00,559.00,VWS V14.01,2013-02-12 19:31:00,
2013-02-12 14:33:00,55.5,24.6,29.99,WSW,246,2.0,4.0,30,0.00,,SKC,0.00,543.00,VWS V14.01,2013-02-12 19:33:00,
2013-02-12 14:36:00,56.3,24.5,29.98,SW,228,5.0,10.0,29,0.00,,SKC,0.00,418.00,VWS V14.01,2013-02-12 19:36:00,
2013-02-12 14:38:00,56.3,23.6,29.98,West,273,5.0,10.0,28,0.00,,SKC,0.00,418.00,VWS V14.01,2013-02-12 19:38:00,
2013-02-12 14:42:00,55.9,23.3,29.98,West,279,8.0,11.0,28,0.00,,SKC,0.00,592.00,VWS V14.01,2013-02-12 19:42:00,
2013-02-12 14:43:00,56.0,23.4,29.98,SW,227,9.0,11.0,28,0.00,,SKC,0.00,585.00,VWS V14.01,2013-02-12 19:43:00,
2013-02-12 14:44:00,56.0,22.5,29.98,WSW,242,4.0,11.0,27,0.00,,SKC,0.00,570.00,VWS V14.01,2013-02-12 19:44:00,
2013-02-12 14:47:00,56.0,22.5,29.98,WNW,299,5.0,11.0,27,0.00,,SKC,0.00,559.00,VWS V14.01,2013-02-12 19:47:00,
2013-02-12 14:48:00,56.1,23.5,29.97,NNW,335,2.0,11.0,28,0.00,,SKC,0.00,582.00,VWS V14.01,2013-02-12 19:48:00,
2013-02-12 14:49:00,56.2,22.7,29.97,NW,326,2.0,11.0,27,0.00,,SKC,0.00,582.00,VWS V14.01,2013-02-12 19:49:00,
2013-02-12 14:53:00,56.2,22.7,29.98,WSW,239,5.0,11.0,27,0.00,,SKC,0.00,538.00,VWS V14.01,2013-02-12 19:53:00,
2013-02-12 14:54:00,56.2,23.5,29.98,SW,227,7.0,11.0,28,0.00,,SKC,0.00,251.00,VWS V14.01,2013-02-12 19:54:00,
2013-02-12 14:58:00,55.8,23.2,29.99,SSW,204,9.0,13.0,28,0.00,,SKC,0.00,292.00,VWS V14.01,2013-02-12 19:58:00,
2013-02-12 14:59:00,55.8,22.3,29.99,WSW,247,6.0,13.0,27,0.00,,SKC,0.00,371.00,VWS V14.01,2013-02-12 19:59:00,
2013-02-12 15:03:00,55.9,24.1,29.99,SW,234,2.0,4.0,29,0.00,,SKC,0.00,281.00,VWS V14.01,2013-02-12 20:03:00,
2013-02-12 15:04:00,56.1,23.5,29.99,SSW,212,2.0,4.0,28,0.00,,SKC,0.00,279.00,VWS V14.01,2013-02-12 20:04:00,
2013-02-12 15:08:00,56.2,22.7,29.99,WSW,245,4.0,8.0,27,0.00,,SKC,0.00,213.00,VWS V14.01,2013-02-12 20:08:00,
2013-02-12 15:09:00,56.1,22.6,29.99,SW,215,3.0,11.0,27,0.00,,SKC,0.00,216.00,VWS V14.01,2013-02-12 20:09:00,
2013-02-12 15:10:00,56.1,22.6,29.99,SW,215,4.0,11.0,27,0.00,,SKC,0.00,220.00,VWS V14.01,2013-02-12 20:10:00,
2013-02-12 15:13:00,56.0,23.4,29.98,SW,236,3.0,11.0,28,0.00,,SKC,0.00,288.00,VWS V14.01,2013-02-12 20:13:00,
2013-02-12 15:14:00,56.0,22.5,29.98,SW,232,3.0,11.0,27,0.00,,SKC,0.00,302.00,VWS V14.01,2013-02-12 20:14:00,
2013-02-12 15:15:00,56.0,22.5,29.98,WSW,246,1.0,11.0,27,0.00,,SKC,0.00,301.00,VWS V14.01,2013-02-12 20:15:00,
2013-02-12 15:18:00,56.1,22.6,29.97,WSW,240,5.0,11.0,27,0.00,,SKC,0.00,227.00,VWS V14.01,2013-02-12 20:18:00,
2013-02-12 15:19:00,56.1,22.6,29.97,WSW,240,4.0,11.0,27,0.00,,SKC,0.00,216.00,VWS V14.01,2013-02-12 20:19:00,
2013-02-12 15:20:00,56.1,22.6,29.97,West,265,1.0,11.0,27,0.00,,SKC,0.00,216.00,VWS V14.01,2013-02-12 20:20:00,
2013-02-12 15:23:00,56.3,23.6,29.98,West,259,6.0,11.0,28,0.00,,SKC,0.00,204.00,VWS V14.01,2013-02-12 20:23:00,
2013-02-12 15:24:00,56.4,23.7,29.98,SW,235,6.0,11.0,28,0.00,,SKC,0.00,207.00,VWS V14.01,2013-02-12 20:24:00,
2013-02-12 15:25:00,56.3,22.8,29.97,West,267,7.0,11.0,27,0.00,,SKC,0.00,209.00,VWS V14.01,2013-02-12 20:25:00,
2013-02-12 15:28:00,56.3,23.6,29.97,WSW,248,2.0,11.0,28,0.00,,SKC,0.00,211.00,VWS V14.01,2013-02-12 20:28:00,
2013-02-12 15:29:00,56.3,23.6,29.97,West,264,5.0,11.0,28,0.00,,SKC,0.00,204.00,VWS V14.01,2013-02-12 20:29:00,
2013-02-12 15:30:00,56.3,23.6,29.97,West,267,7.0,11.0,28,0.00,,SKC,0.00,209.00,VWS V14.01,2013-02-12 20:30:00,
2013-02-12 15:33:00,56.3,23.6,29.96,WSW,252,3.0,12.0,28,0.00,,SKC,0.00,218.00,VWS V14.01,2013-02-12 20:33:00,
2013-02-12 15:34:00,56.3,24.5,29.96,SSW,210,5.0,12.0,29,0.00,,SKC,0.00,236.00,VWS V14.01,2013-02-12 20:34:00,
2013-02-12 15:35:00,56.3,23.6,29.96,West,259,5.0,12.0,28,0.00,,SKC,0.00,237.00,VWS V14.01,2013-02-12 20:35:00,
2013-02-12 15:38:00,56.6,24.7,29.95,NW,309,1.0,12.0,29,0.00,,SKC,0.00,343.00,VWS V14.01,2013-02-12 20:38:00,
2013-02-12 15:40:00,56.8,24.9,29.95,West,261,6.0,12.0,29,0.00,,SKC,0.00,408.00,VWS V14.01,2013-02-12 20:40:00,
2013-02-12 15:43:00,57.3,25.3,29.95,NW,315,3.0,12.0,29,0.00,,SKC,0.00,531.00,VWS V14.01,2013-02-12 20:43:00,
2013-02-12 15:45:00,57.6,24.8,29.95,SSW,213,5.0,12.0,28,0.00,,SKC,0.00,462.00,VWS V14.01,2013-02-12 20:45:00,
2013-02-12 15:48:00,57.9,24.1,29.95,NNW,347,4.0,12.0,27,0.00,,SKC,0.00,455.00,VWS V14.01,2013-02-12 20:48:00,
2013-02-12 15:50:00,58.1,24.3,29.95,West,279,6.0,12.0,27,0.00,,SKC,0.00,415.00,VWS V14.01,2013-02-12 20:50:00,
2013-02-12 15:51:00,58.1,24.3,29.95,NNW,334,4.0,12.0,27,0.00,,SKC,0.00,436.00,VWS V14.01,2013-02-12 20:51:00,
2013-02-12 15:53:00,57.8,24.1,29.95,North,360,2.0,12.0,27,0.00,,SKC,0.00,271.00,VWS V14.01,2013-02-12 20:53:00,
2013-02-12 15:55:00,57.7,24.0,29.95,West,270,4.0,12.0,27,0.00,,SKC,0.00,111.00,VWS V14.01,2013-02-12 20:55:00,
2013-02-12 15:56:00,57.6,23.9,29.95,West,271,6.0,12.0,27,0.00,,SKC,0.00,121.00,VWS V14.01,2013-02-12 20:56:00,
2013-02-12 15:58:00,57.1,23.5,29.96,West,273,6.0,12.0,27,0.00,,SKC,0.00,128.00,VWS V14.01,2013-02-12 20:58:00,
2013-02-12 16:00:00,56.8,23.2,29.95,West,261,5.0,12.0,27,0.00,,SKC,0.00,132.00,VWS V14.01,2013-02-12 21:00:00,
2013-02-12 16:01:00,56.8,23.2,29.95,West,264,3.0,12.0,27,0.00,,SKC,0.00,158.00,VWS V14.01,2013-02-12 21:01:00,
2013-02-12 16:03:00,56.6,23.9,29.95,West,265,1.0,5.0,28,0.00,,SKC,0.00,148.00,VWS V14.01,2013-02-12 21:03:00,
2013-02-12 16:05:00,56.4,23.7,29.96,WNW,285,1.0,6.0,28,0.00,,SKC,0.00,141.00,VWS V14.01,2013-02-12 21:05:00,
2013-02-12 16:06:00,56.4,23.7,29.96,West,274,4.0,6.0,28,0.00,,SKC,0.00,141.00,VWS V14.01,2013-02-12 21:06:00,
2013-02-12 16:08:00,56.3,23.6,29.96,West,263,5.0,9.0,28,0.00,,SKC,0.00,118.00,VWS V14.01,2013-02-12 21:08:00,
2013-02-12 16:11:00,56.2,24.4,29.96,SW,225,9.0,9.0,29,0.00,,SKC,0.00,104.00,VWS V14.01,2013-02-12 21:11:00,
2013-02-12 16:13:00,56.0,24.2,29.96,SW,235,5.0,9.0,29,0.00,,SKC,0.00,98.00,VWS V14.01,2013-02-12 21:13:00,
2013-02-12 16:16:00,55.8,23.2,29.97,WSW,240,3.0,9.0,28,0.00,,SKC,0.00,93.00,VWS V14.01,2013-02-12 21:16:00,
2013-02-12 16:18:00,55.7,24.0,29.97,West,269,7.0,9.0,29,0.00,,SKC,0.00,95.00,VWS V14.01,2013-02-12 21:18:00,
2013-02-12 16:21:00,55.7,24.0,29.97,WSW,237,5.0,9.0,29,0.00,,SKC,0.00,86.00,VWS V14.01,2013-02-12 21:21:00,
2013-02-12 16:22:00,55.7,24.0,29.97,WSW,245,6.0,9.0,29,0.00,,SKC,0.00,86.00,VWS V14.01,2013-02-12 21:22:00,
2013-02-12 16:23:00,55.7,23.1,29.97,SW,215,7.0,9.0,28,0.00,,SKC,0.00,84.00,VWS V14.01,2013-02-12 21:23:00,
2013-02-12 16:26:00,55.6,23.9,29.98,WSW,244,2.0,9.0,29,0.00,,SKC,0.00,84.00,VWS V14.01,2013-02-12 21:26:00,
2013-02-12 16:27:00,55.6,23.9,29.98,SW,228,4.0,9.0,29,0.00,,SKC,0.00,84.00,VWS V14.01,2013-02-12 21:27:00,
2013-02-12 16:28:00,55.6,23.9,29.98,WSW,238,2.0,9.0,29,0.00,,SKC,0.00,79.00,VWS V14.01,2013-02-12 21:28:00,
2013-02-12 16:31:00,55.5,23.8,29.98,SW,224,2.0,4.0,29,0.00,,SKC,0.00,72.00,VWS V14.01,2013-02-12 21:31:00,
2013-02-12 16:32:00,55.5,23.8,29.98,WSW,250,4.0,4.0,29,0.00,,SKC,0.00,67.00,VWS V14.01,2013-02-12 21:32:00,
2013-02-12 16:34:00,55.5,24.6,29.98,SW,231,3.0,6.0,30,0.00,,SKC,0.00,62.00,VWS V14.01,2013-02-12 21:34:00,
2013-02-12 16:36:00,55.4,23.7,29.98,SW,232,5.0,6.0,29,0.00,,SKC,0.00,58.00,VWS V14.01,2013-02-12 21:36:00,
2013-02-12 16:37:00,55.4,23.7,29.98,SW,232,3.0,6.0,29,0.00,,SKC,0.00,58.00,VWS V14.01,2013-02-12 21:37:00,
2013-02-12 16:39:00,55.4,24.5,29.98,WSW,258,1.0,6.0,30,0.00,,SKC,0.00,58.00,VWS V14.01,2013-02-12 21:39:00,
2013-02-12 16:42:00,55.4,24.5,29.98,West,263,1.0,6.0,30,0.00,,SKC,0.00,51.00,VWS V14.01,2013-02-12 21:42:00,
2013-02-12 16:44:00,55.3,24.4,29.98,West,269,2.0,6.0,30,0.00,,SKC,0.00,51.00,VWS V14.01,2013-02-12 21:44:00,
2013-02-12 16:47:00,55.3,23.6,29.98,WSW,250,3.0,7.0,29,0.00,,SKC,0.00,49.00,VWS V14.01,2013-02-12 21:47:00,
2013-02-12 16:49:00,55.4,24.5,29.98,West,263,3.0,7.0,30,0.00,,SKC,0.00,47.00,VWS V14.01,2013-02-12 21:49:00,
2013-02-12 16:52:00,55.4,23.7,29.98,West,279,3.0,7.0,29,0.00,,SKC,0.00,44.00,VWS V14.01,2013-02-12 21:52:00,
2013-02-12 16:55:00,55.3,24.4,29.98,West,275,0.0,7.0,30,0.00,,SKC,0.00,37.00,VWS V14.01,2013-02-12 21:55:00,
2013-02-12 16:57:00,55.3,24.4,29.98,West,275,0.0,7.0,30,0.00,,SKC,0.00,37.00,VWS V14.01,2013-02-12 21:57:00,
2013-02-12 17:00:00,55.3,23.6,29.97,West,267,0.0,7.0,29,0.00,,SKC,0.00,37.00,VWS V14.01,2013-02-12 22:00:00,
2013-02-12 17:02:00,55.3,23.6,29.98,West,271,5.0,5.0,29,0.00,,SKC,0.00,39.00,VWS V14.01,2013-02-12 22:02:00,
2013-02-12 17:03:00,55.3,22.8,29.98,NNW,336,3.0,10.0,28,0.00,,SKC,0.00,37.00,VWS V14.01,2013-02-12 22:03:00,
2013-02-12 17:05:00,55.2,23.5,29.98,West,266,5.0,10.0,29,0.00,,SKC,0.00,35.00,VWS V14.01,2013-02-12 22:05:00,
2013-02-12 17:07:00,55.2,21.8,29.98,WNW,300,6.0,10.0,27,0.00,,SKC,0.00,26.00,VWS V14.01,2013-02-12 22:07:00,
2013-02-12 17:08:00,55.2,21.8,29.98,West,261,8.0,10.0,27,0.00,,SKC,0.00,25.00,VWS V14.01,2013-02-12 22:08:00,
2013-02-12 17:10:00,55.2,21.8,29.97,West,279,6.0,10.0,27,0.00,,SKC,0.00,25.00,VWS V14.01,2013-02-12 22:10:00,
2013-02-12 17:12:00,55.2,20.9,29.97,NW,315,3.0,10.0,26,0.00,,SKC,0.00,21.00,VWS V14.01,2013-02-12 22:12:00,
2013-02-12 17:13:00,55.2,20.9,29.97,WSW,257,2.0,10.0,26,0.00,,SKC,0.00,21.00,VWS V14.01,2013-02-12 22:13:00,
2013-02-12 17:15:00,55.2,20.9,29.97,NW,323,0.0,10.0,26,0.00,,SKC,0.00,21.00,VWS V14.01,2013-02-12 22:15:00,
2013-02-12 17:18:00,55.2,20.0,29.97,NW,310,5.0,10.0,25,0.00,,SKC,0.00,19.00,VWS V14.01,2013-02-12 22:18:00,
2013-02-12 17:20:00,55.2,20.0,29.97,WNW,291,3.0,10.0,25,0.00,,SKC,0.00,18.00,VWS V14.01,2013-02-12 22:20:00,
2013-02-12 17:23:00,55.2,20.0,29.97,NW,311,0.0,10.0,25,0.00,,SKC,0.00,14.00,VWS V14.01,2013-02-12 22:23:00,
2013-02-12 17:25:00,55.1,19.9,29.97,West,281,3.0,10.0,25,0.00,,SKC,0.00,16.00,VWS V14.01,2013-02-12 22:25:00,
2013-02-12 17:28:00,55.1,19.9,29.97,West,266,1.0,10.0,25,0.00,,SKC,0.00,12.00,VWS V14.01,2013-02-12 22:28:00,
2013-02-12 17:30:00,55.1,19.9,29.97,NW,306,4.0,10.0,25,0.00,,SKC,0.00,12.00,VWS V14.01,2013-02-12 22:30:00,
2013-02-12 17:33:00,55.0,19.8,29.97,WNW,290,2.0,6.0,25,0.00,,SKC,0.00,11.00,VWS V14.01,2013-02-12 22:33:00,
2013-02-12 17:34:00,55.0,19.8,29.97,WNW,290,2.0,6.0,25,0.00,,SKC,0.00,11.00,VWS V14.01,2013-02-12 22:34:00,
2013-02-12 17:35:00,55.0,19.8,29.97,WSW,251,4.0,6.0,25,0.00,,SKC,0.00,9.00,VWS V14.01,2013-02-12 22:35:00,
2013-02-12 17:39:00,54.9,19.8,29.97,West,269,4.0,6.0,25,0.00,,SKC,0.00,7.00,VWS V14.01,2013-02-12 22:39:00,
2013-02-12 17:40:00,54.9,19.8,29.97,West,272,0.0,6.0,25,0.00,,SKC,0.00,7.00,VWS V14.01,2013-02-12 22:40:00,
2013-02-12 17:44:00,54.8,19.7,29.97,West,273,2.0,6.0,25,0.00,,SKC,0.00,5.00,VWS V14.01,2013-02-12 22:44:00,
2013-02-12 17:46:00,54.7,20.5,29.97,WSW,258,2.0,6.0,26,0.00,,SKC,0.00,0.00,VWS V14.01,2013-02-12 22:46:00,
2013-02-12 17:49:00,54.6,19.5,29.97,West,281,7.0,7.0,25,0.00,,SKC,0.00,0.00,VWS V14.01,2013-02-12 22:49:00,
2013-02-12 17:51:00,54.6,18.5,29.96,West,281,4.0,7.0,24,0.00,,SKC,0.00,0.00,VWS V14.01,2013-02-12 22:51:00,
2013-02-12 17:54:00,54.6,19.5,29.96,WNW,287,0.0,7.0,25,0.00,,SKC,0.00,0.00,VWS V14.01,2013-02-12 22:54:00,
2013-02-12 17:56:00,54.6,18.5,29.96,West,274,1.0,7.0,24,0.00,,SKC,0.00,0.00,VWS V14.01,2013-02-12 22:56:00,
2013-02-12 17:59:00,54.6,18.5,29.96,West,274,2.0,7.0,24,0.00,,SKC,0.00,0.00,VWS V14.01,2013-02-12 22:59:00,
2013-02-12 18:00:00,54.6,18.5,29.96,West,275,2.0,7.0,24,0.00,,SKC,0.00,0.00,VWS V14.01,2013-02-12 23:00:00,
2013-02-12 18:01:00,54.6,18.5,29.96,West,281,3.0,3.0,24,0.00,,SKC,0.00,0.00,VWS V14.01,2013-02-12 23:01:00,
2013-02-12 18:04:00,54.5,19.4,29.96,WNW,289,1.0,3.0,25,0.00,,SKC,0.00,0.00,VWS V14.01,2013-02-12 23:04:00,
2013-02-12 18:05:00,54.5,19.4,29.96,WNW,289,1.0,3.0,25,0.00,,SKC,0.00,0.00,VWS V14.01,2013-02-12 23:05:00,
2013-02-12 18:06:00,54.4,19.3,29.96,West,278,2.0,3.0,25,0.00,,SKC,0.00,0.00,VWS V14.01,2013-02-12 23:06:00,
2013-02-12 18:09:00,54.3,19.2,29.97,WNW,290,2.0,3.0,25,0.00,,SKC,0.00,0.00,VWS V14.01,2013-02-12 23:09:00,
2013-02-12 18:10:00,54.3,19.2,29.97,WNW,293,0.0,3.0,25,0.00,,SKC,0.00,0.00,VWS V14.01,2013-02-12 23:10:00,
2013-02-12 18:11:00,54.3,19.2,29.97,West,276,2.0,4.0,25,0.00,,SKC,0.00,0.00,VWS V14.01,2013-02-12 23:11:00,
2013-02-12 18:15:00,54.2,19.2,29.97,West,276,2.0,4.0,25,0.00,,SKC,0.00,0.00,VWS V14.01,2013-02-12 23:15:00,
2013-02-12 18:16:00,54.2,19.2,29.97,West,276,1.0,4.0,25,0.00,,SKC,0.00,0.00,VWS V14.01,2013-02-12 23:16:00,
2013-02-12 18:20:00,54.1,19.1,29.97,West,275,1.0,4.0,25,0.00,,SKC,0.00,0.00,VWS V14.01,2013-02-12 23:20:00,
2013-02-12 18:22:00,54.1,19.1,29.97,WNW,286,2.0,4.0,25,0.00,,SKC,0.00,0.00,VWS V14.01,2013-02-12 23:22:00,
2013-02-12 18:25:00,54.1,19.1,29.97,West,278,1.0,4.0,25,0.00,,SKC,0.00,0.00,VWS V14.01,2013-02-12 23:25:00,
2013-02-12 18:26:00,54.0,19.9,29.97,West,278,1.0,4.0,26,0.00,,SKC,0.00,0.00,VWS V14.01,2013-02-12 23:26:00,
2013-02-12 18:27:00,54.0,19.9,29.97,West,278,2.0,4.0,26,0.00,,SKC,0.00,0.00,VWS V14.01,2013-02-12 23:27:00,
2013-02-12 18:30:00,53.8,19.7,29.97,West,278,2.0,4.0,26,0.00,,SKC,0.00,0.00,VWS V14.01,2013-02-12 23:30:00,
2013-02-12 18:31:00,53.7,19.6,29.97,WSW,258,2.0,3.0,26,0.00,,SKC,0.00,0.00,VWS V14.01,2013-02-12 23:31:00,
2013-02-12 18:32:00,53.7,19.6,29.97,West,263,3.0,3.0,26,0.00,,SKC,0.00,0.00,VWS V14.01,2013-02-12 23:32:00,
2013-02-12 18:35:00,53.6,20.5,29.97,West,263,0.0,3.0,27,0.00,,SKC,0.00,0.00,VWS V14.01,2013-02-12 23:35:00,
2013-02-12 18:37:00,53.5,19.5,29.97,West,263,1.0,3.0,26,0.00,,SKC,0.00,0.00,VWS V14.01,2013-02-12 23:37:00,
2013-02-12 18:40:00,53.3,19.3,29.97,West,263,0.0,3.0,26,0.00,,SKC,0.00,0.00,VWS V14.01,2013-02-12 23:40:00,
2013-02-12 18:42:00,53.2,19.2,29.97,West,263,1.0,3.0,26,0.00,,SKC,0.00,0.00,VWS V14.01,2013-02-12 23:42:00,
2013-02-12 18:45:00,53.3,19.3,29.97,West,265,0.0,3.0,26,0.00,,SKC,0.00,0.00,VWS V14.01,2013-02-12 23:45:00,
2013-02-12 18:47:00,53.2,20.1,29.97,West,265,0.0,3.0,27,0.00,,SKC,0.00,0.00,VWS V14.01,2013-02-12 23:47:00,
2013-02-12 18:50:00,53.1,20.0,29.96,West,265,0.0,3.0,27,0.00,,SKC,0.00,0.00,VWS V14.01,2013-02-12 23:50:00,
2013-02-12 18:52:00,53.0,19.9,29.96,West,265,0.0,3.0,27,0.00,,SKC,0.00,0.00,VWS V14.01,2013-02-12 23:52:00,
2013-02-12 18:53:00,53.0,19.9,29.96,West,265,0.0,3.0,27,0.00,,SKC,0.00,0.00,VWS V14.01,2013-02-12 23:53:00,
2013-02-12 18:55:00,52.8,20.6,29.96,West,265,0.0,3.0,28,0.00,,SKC,0.00,0.00,VWS V14.01,2013-02-12 23:55:00,
2013-02-12 18:56:00,52.8,19.8,29.96,West,265,0.0,3.0,27,0.00,,SKC,0.00,0.00,VWS V14.01,2013-02-12 23:56:00,
2013-02-12 18:57:00,52.7,19.7,29.95,West,265,0.0,3.0,27,0.00,,SKC,0.00,0.00,VWS V14.01,2013-02-12 23:57:00,
2013-02-12 18:58:00,52.7,19.7,29.95,West,265,0.0,3.0,27,0.00,,SKC,0.00,0.00,VWS V14.01,2013-02-12 23:58:00,
2013-02-12 19:00:00,52.7,20.5,29.95,West,265,0.0,3.0,28,0.00,,SKC,0.00,0.00,VWS V14.01,2013-02-13 00:00:00,
2013-02-12 19:01:00,52.7,20.5,29.95,West,265,0.0,0.0,28,0.00,,SKC,0.00,0.00,VWS V14.01,2013-02-13 00:01:00,
2013-02-12 19:02:00,52.6,20.4,29.96,West,265,0.0,0.0,28,0.00,,SKC,0.00,0.00,VWS V14.01,2013-02-13 00:02:00,
2013-02-12 19:03:00,52.6,21.3,29.96,West,265,0.0,0.0,29,0.00,,SKC,0.00,0.00,VWS V14.01,2013-02-13 00:03:00,
2013-02-12 19:05:00,52.5,20.4,29.96,West,265,0.0,0.0,28,0.00,,SKC,0.00,0.00,VWS V14.01,2013-02-13 00:05:00,
2013-02-12 19:06:00,52.4,20.3,29.95,West,265,0.0,0.0,28,0.00,,SKC,0.00,0.00,VWS V14.01,2013-02-13 00:06:00,
2013-02-12 19:07:00,52.4,19.4,29.95,West,265,0.0,0.0,27,0.00,,SKC,0.00,0.00,VWS V14.01,2013-02-13 00:07:00,
2013-02-12 19:08:00,52.4,19.4,29.95,West,265,0.0,0.0,27,0.00,,SKC,0.00,0.00,VWS V14.01,2013-02-13 00:08:00,
2013-02-12 19:11:00,52.4,19.4,29.95,West,265,0.0,0.0,27,0.00,,SKC,0.00,0.00,VWS V14.01,2013-02-13 00:11:00,
2013-02-12 19:12:00,52.3,19.3,29.95,West,265,0.0,0.0,27,0.00,,SKC,0.00,0.00,VWS V14.01,2013-02-13 00:12:00,
2013-02-12 19:13:00,52.3,19.3,29.95,West,265,0.0,0.0,27,0.00,,SKC,0.00,0.00,VWS V14.01,2013-02-13 00:13:00,
2013-02-12 19:16:00,52.1,20.0,29.95,West,265,0.0,0.0,28,0.00,,SKC,0.00,0.00,VWS V14.01,2013-02-13 00:16:00,
2013-02-12 19:17:00,52.0,19.9,29.94,West,265,0.0,0.0,28,0.00,,SKC,0.00,0.00,VWS V14.01,2013-02-13 00:17:00,
2013-02-12 19:18:00,52.0,19.9,29.95,West,265,0.0,0.0,28,0.00,,SKC,0.00,0.00,VWS V14.01,2013-02-13 00:18:00,
2013-02-12 19:21:00,51.9,19.8,29.95,West,265,0.0,0.0,28,0.00,,SKC,0.00,0.00,VWS V14.01,2013-02-13 00:21:00,
2013-02-12 19:22:00,51.9,19.8,29.95,West,265,0.0,0.0,28,0.00,,SKC,0.00,0.00,VWS V14.01,2013-02-13 00:22:00,
2013-02-12 19:23:00,51.8,21.4,29.94,West,265,0.0,2.0,30,0.00,,SKC,0.00,0.00,VWS V14.01,2013-02-13 00:23:00,
2013-02-12 19:26:00,51.8,18.9,29.94,West,265,0.0,2.0,27,0.00,,SKC,0.00,0.00,VWS V14.01,2013-02-13 00:26:00,
2013-02-12 19:27:00,51.8,18.9,29.94,West,265,0.0,2.0,27,0.00,,SKC,0.00,0.00,VWS V14.01,2013-02-13 00:27:00,
2013-02-12 19:28:00,51.8,18.9,29.94,West,265,0.0,2.0,27,0.00,,SKC,0.00,0.00,VWS V14.01,2013-02-13 00:28:00,
2013-02-12 19:31:00,51.8,19.8,29.94,West,265,0.0,0.0,28,0.00,,SKC,0.00,0.00,VWS V14.01,2013-02-13 00:31:00,
2013-02-12 19:32:00,51.8,18.9,29.94,West,265,0.0,0.0,27,0.00,,SKC,0.00,0.00,VWS V14.01,2013-02-13 00:32:00,
2013-02-12 19:33:00,51.8,18.9,29.94,West,265,0.0,0.0,27,0.00,,SKC,0.00,0.00,VWS V14.01,2013-02-13 00:33:00,
2013-02-12 19:36:00,51.8,18.9,29.94,West,265,0.0,0.0,27,0.00,,SKC,0.00,0.00,VWS V14.01,2013-02-13 00:36:00,
2013-02-12 19:38:00,51.8,19.8,29.94,West,265,0.0,1.0,28,0.00,,SKC,0.00,0.00,VWS V14.01,2013-02-13 00:38:00,
2013-02-12 19:41:00,51.7,22.1,29.94,West,265,0.0,1.0,31,0.00,,SKC,0.00,0.00,VWS V14.01,2013-02-13 00:41:00,
2013-02-12 19:43:00,51.4,23.3,29.94,West,265,0.0,1.0,33,0.00,,SKC,0.00,0.00,VWS V14.01,2013-02-13 00:43:00,
2013-02-12 19:44:00,51.2,23.1,29.94,West,265,0.0,1.0,33,0.00,,SKC,0.00,0.00,VWS V14.01,2013-02-13 00:44:00,
2013-02-12 19:46:00,50.3,23.7,29.94,West,265,0.0,1.0,35,0.00,,SKC,0.00,0.00,VWS V14.01,2013-02-13 00:46:00,
2013-02-12 19:48:00,49.6,23.1,29.94,West,265,0.0,1.0,35,0.00,,SKC,0.00,0.00,VWS V14.01,2013-02-13 00:48:00,
2013-02-12 19:49:00,49.5,23.0,29.94,West,265,0.0,1.0,35,0.00,,SKC,0.00,0.00,VWS V14.01,2013-02-13 00:49:00,
2013-02-12 19:51:00,49.3,21.4,29.94,West,265,0.0,1.0,33,0.00,,SKC,0.00,0.00,VWS V14.01,2013-02-13 00:51:00,
2013-02-12 19:54:00,49.4,22.2,29.94,West,265,2.0,2.0,34,0.00,,SKC,0.00,0.00,VWS V14.01,2013-02-13 00:54:00,
2013-02-12 19:56:00,49.5,22.3,29.94,West,265,1.0,2.0,34,0.00,,SKC,0.00,0.00,VWS V14.01,2013-02-13 00:56:00,
2013-02-12 19:59:00,49.6,22.4,29.94,WNW,290,1.0,3.0,34,0.00,,SKC,0.00,0.00,VWS V14.01,2013-02-13 00:59:00,
2013-02-12 20:01:00,49.6,23.8,29.93,WNW,290,2.0,2.0,36,0.00,,SKC,0.00,0.00,VWS V14.01,2013-02-13 01:01:00,
2013-02-12 20:04:00,49.6,23.8,29.93,WNW,295,2.0,2.0,36,0.00,,SKC,0.00,0.00,VWS V14.01,2013-02-13 01:04:00,
2013-02-12 20:05:00,49.6,23.8,29.93,WNW,295,1.0,2.0,36,0.00,,SKC,0.00,0.00,VWS V14.01,2013-02-13 01:05:00,
2013-02-12 20:06:00,49.5,23.7,29.93,NW,314,1.0,2.0,36,0.00,,SKC,0.00,0.00,VWS V14.01,2013-02-13 01:06:00,
2013-02-12 20:09:00,49.4,23.6,29.93,NW,314,1.0,2.0,36,0.00,,SKC,0.00,0.00,VWS V14.01,2013-02-13 01:09:00,
2013-02-12 20:10:00,49.4,23.6,29.93,NW,314,1.0,2.0,36,0.00,,SKC,0.00,0.00,VWS V14.01,2013-02-13 01:10:00,
2013-02-12 20:12:00,49.3,24.8,29.93,NW,313,1.0,2.0,38,0.00,,SKC,0.00,0.00,VWS V14.01,2013-02-13 01:12:00,
2013-02-12 20:15:00,48.9,26.8,29.94,NW,313,1.0,3.0,42,0.00,,SKC,0.00,0.00,VWS V14.01,2013-02-13 01:15:00,
2013-02-12 20:17:00,48.7,26.6,29.94,NW,313,1.0,3.0,42,0.00,,SKC,0.00,0.00,VWS V14.01,2013-02-13 01:17:00,
2013-02-12 20:20:00,48.3,25.7,29.95,NW,317,2.0,3.0,41,0.00,,SKC,0.00,0.00,VWS V14.01,2013-02-13 01:20:00,
2013-02-12 20:22:00,48.2,25.6,29.95,NNW,327,1.0,4.0,41,0.00,,SKC,0.00,0.00,VWS V14.01,2013-02-13 01:22:00,
2013-02-12 20:25:00,48.0,25.4,29.95,NNW,327,0.0,4.0,41,0.00,,SKC,0.00,0.00,VWS V14.01,2013-02-13 01:25:00,
2013-02-12 20:27:00,47.9,24.8,29.95,NNW,327,1.0,4.0,40,0.00,,SKC,0.00,0.00,VWS V14.01,2013-02-13 01:27:00,
2013-02-12 20:30:00,47.9,24.1,29.95,WNW,289,3.0,4.0,39,0.00,,SKC,0.00,0.00,VWS V14.01,2013-02-13 01:30:00,
2013-02-12 20:31:00,47.9,23.5,29.95,WNW,287,2.0,4.0,38,0.00,,SKC,0.00,0.00,VWS V14.01,2013-02-13 01:31:00,
2013-02-12 20:32:00,47.9,24.1,29.95,WNW,287,1.0,2.0,39,0.00,,SKC,0.00,0.00,VWS V14.01,2013-02-13 01:32:00,
2013-02-12 20:35:00,48.0,26.6,29.96,WNW,287,2.0,2.0,43,0.00,,SKC,0.00,0.00,VWS V14.01,2013-02-13 01:35:00,
2013-02-12 20:36:00,48.0,26.6,29.96,WNW,287,2.0,2.0,43,0.00,,SKC,0.00,0.00,VWS V14.01,2013-02-13 01:36:00,
2013-02-12 20:37:00,48.0,27.7,29.96,WNW,287,1.0,2.0,45,0.00,,SKC,0.00,0.00,VWS V14.01,2013-02-13 01:37:00,
2013-02-12 20:40:00,47.8,26.4,29.96,WNW,292,0.0,3.0,43,0.00,,SKC,0.00,0.00,VWS V14.01,2013-02-13 01:40:00,
2013-02-12 20:41:00,47.8,26.4,29.96,WNW,292,1.0,3.0,43,0.00,,SKC,0.00,0.00,VWS V14.01,2013-02-13 01:41:00,
2013-02-12 20:42:00,47.7,25.8,29.96,WNW,293,0.0,3.0,42,0.00,,SKC,0.00,0.00,VWS V14.01,2013-02-13 01:42:00,
2013-02-12 20:46:00,47.8,25.3,29.96,WNW,294,0.0,3.0,41,0.00,,SKC,0.00,0.00,VWS V14.01,2013-02-13 01:46:00,
2013-02-12 20:47:00,47.8,24.7,29.96,WNW,294,0.0,3.0,40,0.00,,SKC,0.00,0.00,VWS V14.01,2013-02-13 01:47:00,
2013-02-12 20:51:00,48.1,23.7,29.97,WNW,287,2.0,4.0,38,0.00,,SKC,0.00,0.00,VWS V14.01,2013-02-13 01:51:00,
2013-02-12 20:52:00,48.4,24.0,29.98,WNW,287,3.0,4.0,38,0.00,,SKC,0.00,0.00,VWS V14.01,2013-02-13 01:52:00,
2013-02-12 20:56:00,49.1,24.0,29.98,West,278,2.0,4.0,37,0.00,,SKC,0.00,0.00,VWS V14.01,2013-02-13 01:56:00,
2013-02-12 20:58:00,49.3,23.5,29.98,West,279,0.0,5.0,36,0.00,,SKC,0.00,0.00,VWS V14.01,2013-02-13 01:58:00,
2013-02-12 21:01:00,49.7,23.9,29.98,WNW,300,2.0,3.0,36,0.00,,SKC,0.00,0.00,VWS V14.01,2013-02-13 02:01:00,
2013-02-12 21:03:00,49.8,23.3,29.97,WNW,283,3.0,6.0,35,0.00,,SKC,0.00,0.00,VWS V14.01,2013-02-13 02:03:00,
2013-02-12 21:06:00,50.1,23.5,29.98,West,270,5.0,7.0,35,0.00,,SKC,0.00,0.00,VWS V14.01,2013-02-13 02:06:00,
2013-02-12 21:07:00,50.2,23.6,29.98,West,279,4.0,7.0,35,0.00,,SKC,0.00,0.00,VWS V14.01,2013-02-13 02:07:00,
2013-02-12 21:08:00,50.4,23.8,29.97,WSW,254,3.0,8.0,35,0.00,,SKC,0.00,0.00,VWS V14.01,2013-02-13 02:08:00,
2013-02-12 21:12:00,50.6,24.0,29.97,West,265,5.0,9.0,35,0.00,,SKC,0.00,0.00,VWS V14.01,2013-02-13 02:12:00,
2013-02-12 21:13:00,50.6,24.0,29.97,West,273,3.0,9.0,35,0.00,,SKC,0.00,0.00,VWS V14.01,2013-02-13 02:13:00,
2013-02-12 21:17:00,50.6,24.0,29.97,NW,313,3.0,9.0,35,0.00,,SKC,0.00,0.00,VWS V14.01,2013-02-13 02:17:00,
2013-02-12 21:18:00,50.7,24.1,29.96,NW,313,4.0,9.0,35,0.00,,SKC,0.00,0.00,VWS V14.01,2013-02-13 02:18:00,
2013-02-12 21:22:00,50.7,24.1,29.96,NNW,339,7.0,9.0,35,0.00,,SKC,0.00,0.00,VWS V14.01,2013-02-13 02:22:00,
2013-02-12 21:23:00,50.7,24.1,29.96,NNW,340,6.0,9.0,35,0.00,,SKC,0.00,0.00,VWS V14.01,2013-02-13 02:23:00,
2013-02-12 21:27:00,50.8,23.5,29.96,NW,314,1.0,10.0,34,0.00,,SKC,0.00,0.00,VWS V14.01,2013-02-13 02:27:00,
2013-02-12 21:28:00,50.8,24.1,29.96,West,269,6.0,10.0,35,0.00,,SKC,0.00,0.00,VWS V14.01,2013-02-13 02:28:00,
2013-02-12 21:32:00,50.8,24.1,29.96,West,275,1.0,3.0,35,0.00,,SKC,0.00,0.00,VWS V14.01,2013-02-13 02:32:00,
2013-02-12 21:33:00,50.9,24.2,29.96,West,275,0.0,3.0,35,0.00,,SKC,0.00,0.00,VWS V14.01,2013-02-13 02:33:00,
2013-02-12 21:37:00,50.8,24.1,29.95,West,275,1.0,3.0,35,0.00,,SKC,0.00,0.00,VWS V14.01,2013-02-13 02:37:00,
2013-02-12 21:38:00,50.7,24.7,29.95,West,273,2.0,3.0,36,0.00,,SKC,0.00,0.00,VWS V14.01,2013-02-13 02:38:00,
2013-02-12 21:39:00,50.6,24.0,29.95,SW,230,3.0,3.0,35,0.00,,SKC,0.00,0.00,VWS V14.01,2013-02-13 02:39:00,
2013-02-12 21:42:00,50.4,23.8,29.96,SW,230,0.0,3.0,35,0.00,,SKC,0.00,0.00,VWS V14.01,2013-02-13 02:42:00,
2013-02-12 21:43:00,50.4,23.8,29.96,SW,230,0.0,3.0,35,0.00,,SKC,0.00,0.00,VWS V14.01,2013-02-13 02:43:00,
2013-02-12 21:44:00,50.3,23.7,29.96,SW,230,1.0,3.0,35,0.00,,SKC,0.00,0.00,VWS V14.01,2013-02-13 02:44:00,
2013-02-12 21:47:00,50.3,24.4,29.96,SW,230,1.0,3.0,36,0.00,,SKC,0.00,0.00,VWS V14.01,2013-02-13 02:47:00,
2013-02-12 21:48:00,50.3,24.4,29.97,SSW,207,2.0,3.0,36,0.00,,SKC,0.00,0.00,VWS V14.01,2013-02-13 02:48:00,
2013-02-12 21:49:00,50.2,24.3,29.97,SSW,205,3.0,3.0,36,0.00,,SKC,0.00,0.00,VWS V14.01,2013-02-13 02:49:00,
2013-02-12 21:52:00,50.1,24.9,29.97,SSE,165,2.0,4.0,37,0.00,,SKC,0.00,0.00,VWS V14.01,2013-02-13 02:52:00,
2013-02-12 21:53:00,50.0,24.8,29.97,SSE,165,3.0,4.0,37,0.00,,SKC,0.00,0.00,VWS V14.01,2013-02-13 02:53:00,
2013-02-12 21:54:00,50.0,24.8,29.97,SSE,165,2.0,4.0,37,0.00,,SKC,0.00,0.00,VWS V14.01,2013-02-13 02:54:00,
2013-02-12 21:57:00,49.7,25.8,29.97,SSE,165,2.0,4.0,39,0.00,,SKC,0.00,0.00,VWS V14.01,2013-02-13 02:57:00,
2013-02-12 21:58:00,49.6,25.7,29.97,SSE,165,2.0,4.0,39,0.00,,SKC,0.00,0.00,VWS V14.01,2013-02-13 02:58:00,
2013-02-12 21:59:00,49.5,25.6,29.97,SSE,165,0.0,4.0,39,0.00,,SKC,0.00,0.00,VWS V14.01,2013-02-13 02:59:00,
2013-02-12 22:00:00,49.5,25.0,29.97,SSE,165,1.0,4.0,38,0.00,,SKC,0.00,0.00,VWS V14.01,2013-02-13 03:00:00,
2013-02-12 22:02:00,49.4,24.2,29.97,SSW,200,0.0,4.0,37,0.00,,SKC,0.00,0.00,VWS V14.01,2013-02-13 03:02:00,
2013-02-12 22:03:00,49.4,24.2,29.97,SSW,200,1.0,4.0,37,0.00,,SKC,0.00,0.00,VWS V14.01,2013-02-13 03:03:00,
2013-02-12 22:04:00,49.4,24.9,29.97,SW,217,2.0,4.0,38,0.00,,SKC,0.00,0.00,VWS V14.01,2013-02-13 03:04:00,
2013-02-12 22:05:00,49.5,24.3,29.97,SW,216,3.0,4.0,37,0.00,,SKC,0.00,0.00,VWS V14.01,2013-02-13 03:05:00,
2013-02-12 22:08:00,49.6,23.8,29.96,SSW,207,4.0,4.0,36,0.00,,SKC,0.00,0.00,VWS V14.01,2013-02-13 03:08:00,
2013-02-12 22:09:00,49.7,23.9,29.96,SW,214,1.0,5.0,36,0.00,,SKC,0.00,0.00,VWS V14.01,2013-02-13 03:09:00,
2013-02-12 22:10:00,49.7,23.9,29.96,SW,215,4.0,5.0,36,0.00,,SKC,0.00,0.00,VWS V14.01,2013-02-13 03:10:00,
2013-02-12 22:13:00,49.8,23.9,29.95,SSE,166,1.0,5.0,36,0.00,,SKC,0.00,0.00,VWS V14.01,2013-02-13 03:13:00,
2013-02-12 22:14:00,49.8,23.9,29.95,SSE,166,0.0,5.0,36,0.00,,SKC,0.00,0.00,VWS V14.01,2013-02-13 03:14:00,
2013-02-12 22:15:00,49.8,23.9,29.95,SSE,166,1.0,5.0,36,0.00,,SKC,0.00,0.00,VWS V14.01,2013-02-13 03:15:00,
2013-02-12 22:18:00,49.7,24.5,29.95,SSE,166,0.0,5.0,37,0.00,,SKC,0.00,0.00,VWS V14.01,2013-02-13 03:18:00,
2013-02-12 22:19:00,49.6,25.0,29.95,SSE,166,1.0,5.0,38,0.00,,SKC,0.00,0.00,VWS V14.01,2013-02-13 03:19:00,
2013-02-12 22:20:00,49.5,25.0,29.95,SSE,156,3.0,5.0,38,0.00,,SKC,0.00,0.00,VWS V14.01,2013-02-13 03:20:00,
2013-02-12 22:23:00,49.1,25.8,29.95,SSE,155,0.0,5.0,40,0.00,,SKC,0.00,0.00,VWS V14.01,2013-02-13 03:23:00,
2013-02-12 22:24:00,49.0,25.8,29.95,SSE,155,0.0,5.0,40,0.00,,SKC,0.00,0.00,VWS V14.01,2013-02-13 03:24:00,
2013-02-12 22:25:00,48.9,25.7,29.95,SSE,155,0.0,5.0,40,0.00,,SKC,0.00,0.00,VWS V14.01,2013-02-13 03:25:00,
2013-02-12 22:28:00,48.7,24.9,29.95,SSE,155,1.0,5.0,39,0.00,,SKC,0.00,0.00,VWS V14.01,2013-02-13 03:28:00,
2013-02-12 22:29:00,48.6,25.4,29.95,SSE,156,1.0,5.0,40,0.00,,SKC,0.00,0.00,VWS V14.01,2013-02-13 03:29:00,
2013-02-12 22:30:00,48.6,25.4,29.95,SSE,156,0.0,5.0,40,0.00,,SKC,0.00,0.00,VWS V14.01,2013-02-13 03:30:00,
2013-02-12 22:33:00,48.4,25.8,29.95,SSE,156,1.0,2.0,41,0.00,,SKC,0.00,0.00,VWS V14.01,2013-02-13 03:33:00,
2013-02-12 22:34:00,48.4,25.8,29.96,SSE,156,1.0,2.0,41,0.00,,SKC,0.00,0.00,VWS V14.01,2013-02-13 03:34:00,
2013-02-12 22:35:00,48.3,25.7,29.96,SSE,156,0.0,2.0,41,0.00,,SKC,0.00,0.00,VWS V14.01,2013-02-13 03:35:00,
2013-02-12 22:38:00,48.2,26.2,29.96,SSE,156,0.0,2.0,42,0.00,,SKC,0.00,0.00,VWS V14.01,2013-02-13 03:38:00,
2013-02-12 22:39:00,48.2,26.2,29.96,SSE,156,0.0,2.0,42,0.00,,SKC,0.00,0.00,VWS V14.01,2013-02-13 03:39:00,
2013-02-12 22:40:00,48.2,26.2,29.95,SSE,156,0.0,2.0,42,0.00,,SKC,0.00,0.00,VWS V14.01,2013-02-13 03:40:00,
2013-02-12 22:44:00,48.1,26.1,29.95,SSE,155,2.0,2.0,42,0.00,,SKC,0.00,0.00,VWS V14.01,2013-02-13 03:44:00,
2013-02-12 22:45:00,48.0,26.0,29.95,SSE,155,1.0,2.0,42,0.00,,SKC,0.00,0.00,VWS V14.01,2013-02-13 03:45:00,
2013-02-12 22:49:00,47.9,25.4,29.94,SSE,155,1.0,2.0,41,0.00,,SKC,0.00,0.00,VWS V14.01,2013-02-13 03:49:00,
2013-02-12 22:50:00,47.9,24.8,29.94,SSE,155,1.0,2.0,40,0.00,,SKC,0.00,0.00,VWS V14.01,2013-02-13 03:50:00,
2013-02-12 22:54:00,47.8,24.7,29.94,SSE,155,2.0,2.0,40,0.00,,SKC,0.00,0.00,VWS V14.01,2013-02-13 03:54:00,
2013-02-12 22:56:00,47.8,24.7,29.94,SSE,155,1.0,2.0,40,0.00,,SKC,0.00,0.00,VWS V14.01,2013-02-13 03:56:00,
2013-02-12 22:59:00,47.7,25.2,29.95,SSE,155,0.0,3.0,41,0.00,,SKC,0.00,0.00,VWS V14.01,2013-02-13 03:59:00,
2013-02-12 23:01:00,47.7,25.8,29.95,WNW,298,0.0,3.0,42,0.00,,SKC,0.00,0.00,VWS V14.01,2013-02-13 04:01:00,
2013-02-12 23:04:00,47.6,25.7,29.96,WNW,298,2.0,3.0,42,0.00,,SKC,0.00,0.00,VWS V14.01,2013-02-13 04:04:00,
2013-02-12 23:05:00,47.6,25.7,29.96,WNW,298,2.0,3.0,42,0.00,,SKC,0.00,0.00,VWS V14.01,2013-02-13 04:05:00,
2013-02-12 23:06:00,47.5,26.1,29.95,NNW,331,3.0,4.0,43,0.00,,SKC,0.00,0.00,VWS V14.01,2013-02-13 04:06:00,
2013-02-12 23:09:00,47.3,26.5,29.95,NNW,332,2.0,4.0,44,0.00,,SKC,0.00,0.00,VWS V14.01,2013-02-13 04:09:00,
2013-02-12 23:10:00,47.3,26.5,29.95,NNW,340,3.0,4.0,44,0.00,,SKC,0.00,0.00,VWS V14.01,2013-02-13 04:10:00,
2013-02-12 23:11:00,47.2,27.0,29.95,NNW,340,0.0,4.0,45,0.00,,SKC,0.00,0.00,VWS V14.01,2013-02-13 04:11:00,
2013-02-12 23:14:00,46.9,27.2,29.94,NNW,340,1.0,4.0,46,0.00,,SKC,0.00,0.00,VWS V14.01,2013-02-13 04:14:00,
2013-02-12 23:15:00,46.9,26.7,29.94,NNW,340,1.0,4.0,45,0.00,,SKC,0.00,0.00,VWS V14.01,2013-02-13 04:15:00,
2013-02-12 23:16:00,46.8,26.0,29.94,NNW,340,1.0,4.0,44,0.00,,SKC,0.00,0.00,VWS V14.01,2013-02-13 04:16:00,
2013-02-12 23:19:00,46.8,26.6,29.94,NNW,340,1.0,4.0,45,0.00,,SKC,0.00,0.00,VWS V14.01,2013-02-13 04:19:00,
2013-02-12 23:20:00,46.7,26.5,29.94,NNW,340,2.0,4.0,45,0.00,,SKC,0.00,0.00,VWS V14.01,2013-02-13 04:20:00,
2013-02-12 23:21:00,46.7,25.4,29.94,NNW,340,2.0,4.0,43,0.00,,SKC,0.00,0.00,VWS V14.01,2013-02-13 04:21:00,
2013-02-12 23:24:00,46.5,26.9,29.95,NW,317,3.0,4.0,46,0.00,,SKC,0.00,0.00,VWS V14.01,2013-02-13 04:24:00,
2013-02-12 23:25:00,46.5,26.9,29.95,NW,316,3.0,4.0,46,0.00,,SKC,0.00,0.00,VWS V14.01,2013-02-13 04:25:00,
2013-02-12 23:26:00,46.4,26.8,29.95,NW,316,2.0,4.0,46,0.00,,SKC,0.00,0.00,VWS V14.01,2013-02-13 04:26:00,
2013-02-12 23:29:00,46.3,25.6,29.95,NW,316,1.0,4.0,44,0.00,,SKC,0.00,0.00,VWS V14.01,2013-02-13 04:29:00,
2013-02-12 23:30:00,46.3,25.6,29.95,NW,316,2.0,4.0,44,0.00,,SKC,0.00,0.00,VWS V14.01,2013-02-13 04:30:00,
2013-02-12 23:31:00,46.3,25.6,29.95,NW,316,0.0,4.0,44,0.00,,SKC,0.00,0.00,VWS V14.01,2013-02-13 04:31:00,
2013-02-12 23:34:00,46.3,25.0,29.95,NW,316,0.0,1.0,43,0.00,,SKC,0.00,0.00,VWS V14.01,2013-02-13 04:34:00,
2013-02-12 23:35:00,46.3,25.0,29.95,NW,316,0.0,1.0,43,0.00,,SKC,0.00,0.00,VWS V14.01,2013-02-13 04:35:00,
2013-02-12 23:36:00,46.3,25.0,29.95,NW,316,0.0,1.0,43,0.00,,SKC,0.00,0.00,VWS V14.01,2013-02-13 04:36:00,
2013-02-12 23:37:00,46.3,25.0,29.95,NW,316,0.0,1.0,43,0.00,,SKC,0.00,0.00,VWS V14.01,2013-02-13 04:37:00,
2013-02-12 23:39:00,46.4,25.7,29.95,NW,316,2.0,2.0,44,0.00,,SKC,0.00,0.00,VWS V14.01,2013-02-13 04:39:00,
2013-02-12 23:40:00,46.4,25.7,29.95,NW,316,2.0,3.0,44,0.00,,SKC,0.00,0.00,VWS V14.01,2013-02-13 04:40:00,
2013-02-12 23:41:00,46.2,27.1,29.96,SW,221,2.0,3.0,47,0.00,,SKC,0.00,0.00,VWS V14.01,2013-02-13 04:41:00,
2013-02-12 23:42:00,46.1,28.5,29.96,SW,221,3.0,3.0,50,0.00,,SKC,0.00,0.00,VWS V14.01,2013-02-13 04:42:00,
2013-02-12 23:44:00,45.6,27.1,29.96,SW,221,0.0,3.0,48,0.00,,SKC,0.00,0.00,VWS V14.01,2013-02-13 04:44:00,
2013-02-12 23:45:00,45.5,25.9,29.96,SW,221,0.0,3.0,46,0.00,,SKC,0.00,0.00,VWS V14.01,2013-02-13 04:45:00,
2013-02-12 23:46:00,45.5,25.4,29.95,SW,221,0.0,3.0,45,0.00,,SKC,0.00,0.00,VWS V14.01,2013-02-13 04:46:00,
2013-02-12 23:47:00,45.6,25.5,29.95,SW,221,0.0,3.0,45,0.00,,SKC,0.00,0.00,VWS V14.01,2013-02-13 04:47:00,
2013-02-12 23:49:00,45.6,26.0,29.95,SW,221,0.0,3.0,46,0.00,,SKC,0.00,0.00,VWS V14.01,2013-02-13 04:49:00,
2013-02-12 23:50:00,45.6,26.5,29.95,SW,221,0.0,3.0,47,0.00,,SKC,0.00,0.00,VWS V14.01,2013-02-13 04:50:00,
2013-02-12 23:52:00,45.6,28.0,29.94,SW,221,0.0,3.0,50,0.00,,SKC,0.00,0.00,VWS V14.01,2013-02-13 04:52:00,
2013-02-12 23:54:00,45.5,27.5,29.94,SW,221,0.0,3.0,49,0.00,,SKC,0.00,0.00,VWS V14.01,2013-02-13 04:54:00,
2013-02-12 23:55:00,45.5,27.5,29.94,SW,221,0.0,3.0,49,0.00,,SKC,0.00,0.00,VWS V14.01,2013-02-13 04:55:00,
2013-02-12 23:57:00,45.5,27.0,29.95,SW,221,1.0,3.0,48,0.00,,SKC,0.00,0.00,VWS V14.01,2013-02-13 04:57:00,
2013-02-12 23:58:00,45.5,27.0,29.95,SW,221,1.0,3.0,48,0.00,,SKC,0.00,0.00,VWS V14.01,2013-02-13 04:58:00,
2013-02-12 23:59:00,45.4,26.9,29.95,SW,221,0.0,3.0,48,0.00,,SKC,0.00,0.00,VWS V14.01,2013-02-13 04:59:00,